| time (UTC) | temp F | wind direction | speed MPH | gust MPH | rain 1hr in | rain 24hr in | rain mn in | humidity % | barometer mb |
| 20260502234305 | 75 | 29 | 4.0 | 11.0 | 0.00 | 0.00 | 0.00 | 35 | 1018.6 |
| 20260502234204 | 75 | 28 | 4.0 | 11.0 | 0.00 | 0.00 | 0.00 | 35 | 1018.6 |
| 20260502234005 | 75 | 26 | 4.0 | 11.0 | 0.00 | 0.00 | 0.00 | 35 | 1018.6 |
| 20260502233905 | 75 | 24 | 4.0 | 11.0 | 0.00 | 0.00 | 0.00 | 35 | 1018.6 |
| 20260502233805 | 75 | 25 | 4.0 | 11.0 | 0.00 | 0.00 | 0.00 | 34 | 1018.6 |
| 20260502233605 | 75 | 26 | 3.0 | 11.0 | 0.00 | 0.00 | 0.00 | 34 | 1018.6 |
| 20260502233305 | 75 | 7 | 3.0 | 8.0 | 0.00 | 0.00 | 0.00 | 35 | 1018.6 |
| 20260502233205 | 75 | 3 | 3.0 | 8.0 | 0.00 | 0.00 | 0.00 | 36 | 1018.6 |
| 20260502233106 | 75 | 357 | 3.0 | 8.0 | 0.00 | 0.00 | 0.00 | 35 | 1018.6 |
| 20260502233005 | 75 | 358 | 3.0 | 8.0 | 0.00 | 0.00 | 0.00 | 33 | 1018.6 |
| 20260502232906 | 75 | 358 | 3.0 | 8.0 | 0.00 | 0.00 | 0.00 | 34 | 1018.6 |
| 20260502232805 | 75 | 358 | 3.0 | 8.0 | 0.00 | 0.00 | 0.00 | 33 | 1018.6 |
| 20260502232706 | 75 | 359 | 3.0 | 9.0 | 0.00 | 0.00 | 0.00 | 33 | 1018.6 |
| 20260502232506 | 76 | 6 | 3.0 | 9.0 | 0.00 | 0.00 | 0.00 | 33 | 1018.6 |
| 20260502232405 | 75 | 15 | 3.0 | 9.0 | 0.00 | 0.00 | 0.00 | 34 | 1018.6 |
| 20260502232306 | 75 | 35 | 3.0 | 9.0 | 0.00 | 0.00 | 0.00 | 34 | 1018.5 |
| 20260502232205 | 75 | 46 | 3.0 | 9.0 | 0.00 | 0.00 | 0.00 | 34 | 1018.6 |
| 20260502232106 | 75 | 55 | 4.0 | 9.0 | 0.00 | 0.00 | 0.00 | 34 | 1018.6 |
| 20260502232005 | 75 | 58 | 4.0 | 10.0 | 0.00 | 0.00 | 0.00 | 34 | 1018.6 |
| 20260502231905 | 75 | 58 | 4.0 | 10.0 | 0.00 | 0.00 | 0.00 | 34 | 1018.6 |
| 20260502231805 | 75 | 58 | 4.0 | 10.0 | 0.00 | 0.00 | 0.00 | 35 | 1018.6 |
| 20260502231604 | 75 | 57 | 4.0 | 10.0 | 0.00 | 0.00 | 0.00 | 35 | 1018.6 |
| 20260502231405 | 75 | 47 | 5.0 | 10.0 | 0.00 | 0.00 | 0.00 | 35 | 1018.6 |
| 20260502231306 | 75 | 42 | 5.0 | 11.0 | 0.00 | 0.00 | 0.00 | 35 | 1018.6 |
| 20260502231205 | 75 | 40 | 5.0 | 11.0 | 0.00 | 0.00 | 0.00 | 34 | 1018.6 |
| 20260502231106 | 75 | 39 | 5.0 | 11.0 | 0.00 | 0.00 | 0.00 | 34 | 1018.6 |
| 20260502231005 | 75 | 36 | 5.0 | 11.0 | 0.00 | 0.00 | 0.00 | 33 | 1018.6 |
| 20260502230905 | 75 | 34 | 4.0 | 11.0 | 0.00 | 0.00 | 0.00 | 34 | 1018.6 |
| 20260502230805 | 76 | 34 | 4.0 | 11.0 | 0.00 | 0.00 | 0.00 | 34 | 1018.6 |
| 20260502230705 | 76 | 32 | 5.0 | 11.0 | 0.00 | 0.00 | 0.00 | 34 | 1018.7 |
| 20260502230605 | 75 | 30 | 5.0 | 11.0 | 0.00 | 0.00 | 0.00 | 34 | 1018.6 |
| 20260502230505 | 76 | 27 | 4.0 | 11.0 | 0.00 | 0.00 | 0.00 | 34 | 1018.6 |
| 20260502230306 | 76 | 32 | 4.0 | 11.0 | 0.00 | 0.00 | 0.00 | 35 | 1018.6 |
| 20260502230205 | 76 | 32 | 4.0 | 9.0 | 0.00 | 0.00 | 0.00 | 34 | 1018.6 |
| 20260502230005 | 76 | 27 | 4.0 | 9.0 | 0.00 | 0.00 | 0.00 | 34 | 1018.5 |
| 20260502225905 | 75 | 27 | 4.0 | 9.0 | 0.00 | 0.00 | 0.00 | 34 | 1018.5 |
| 20260502225805 | 75 | 26 | 4.0 | 9.0 | 0.00 | 0.00 | 0.00 | 36 | 1018.5 |
| 20260502225705 | 75 | 25 | 4.0 | 9.0 | 0.00 | 0.00 | 0.00 | 35 | 1018.5 |
| 20260502225605 | 75 | 25 | 4.0 | 10.0 | 0.00 | 0.00 | 0.00 | 36 | 1018.5 |
| 20260502225505 | 75 | 23 | 4.0 | 10.0 | 0.00 | 0.00 | 0.00 | 34 | 1018.5 |
| 20260502225405 | 76 | 20 | 4.0 | 10.0 | 0.00 | 0.00 | 0.00 | 35 | 1018.5 |
| 20260502225305 | 76 | 16 | 3.0 | 10.0 | 0.00 | 0.00 | 0.00 | 36 | 1018.5 |
| 20260502225205 | 76 | 13 | 3.0 | 10.0 | 0.00 | 0.00 | 0.00 | 36 | 1018.4 |
| 20260502225105 | 75 | 10 | 3.0 | 10.0 | 0.00 | 0.00 | 0.00 | 36 | 1018.4 |
| 20260502225005 | 75 | 12 | 3.0 | 10.0 | 0.00 | 0.00 | 0.00 | 35 | 1018.5 |
| 20260502224905 | 76 | 14 | 3.0 | 10.0 | 0.00 | 0.00 | 0.00 | 34 | 1018.5 |
| 20260502224805 | 76 | 15 | 4.0 | 10.0 | 0.00 | 0.00 | 0.00 | 34 | 1018.5 |
| 20260502224705 | 76 | 16 | 4.0 | 11.0 | 0.00 | 0.00 | 0.00 | 34 | 1018.5 |
| 20260502224605 | 76 | 15 | 4.0 | 11.0 | 0.00 | 0.00 | 0.00 | 36 | 1018.5 |
| 20260502224506 | 76 | 15 | 4.0 | 11.0 | 0.00 | 0.00 | 0.00 | 35 | 1018.5 |
| 20260502224405 | 76 | 15 | 4.0 | 11.0 | 0.00 | 0.00 | 0.00 | 36 | 1018.5 |
| 20260502224305 | 76 | 15 | 5.0 | 11.0 | 0.00 | 0.00 | 0.00 | 35 | 1018.5 |
| 20260502224205 | 76 | 13 | 5.0 | 11.0 | 0.00 | 0.00 | 0.00 | 35 | 1018.5 |
| 20260502224105 | 76 | 14 | 5.0 | 11.0 | 0.00 | 0.00 | 0.00 | 35 | 1018.5 |
| 20260502223906 | 76 | 12 | 5.0 | 11.0 | 0.00 | 0.00 | 0.00 | 34 | 1018.5 |
| 20260502223805 | 76 | 12 | 4.0 | 11.0 | 0.00 | 0.00 | 0.00 | 35 | 1018.5 |
| 20260502223707 | 76 | 11 | 4.0 | 11.0 | 0.00 | 0.00 | 0.00 | 35 | 1018.5 |
| 20260502223605 | 77 | 11 | 5.0 | 11.0 | 0.00 | 0.00 | 0.00 | 35 | 1018.6 |
| 20260502223505 | 77 | 11 | 5.0 | 12.0 | 0.00 | 0.00 | 0.00 | 33 | 1018.5 |
| 20260502223404 | 77 | 11 | 5.0 | 12.0 | 0.00 | 0.00 | 0.00 | 34 | 1018.6 |
| 20260502223204 | 77 | 10 | 4.0 | 12.0 | 0.00 | 0.00 | 0.00 | 36 | 1018.6 |
| 20260502223105 | 77 | 8 | 4.0 | 12.0 | 0.00 | 0.00 | 0.00 | 33 | 1018.6 |
| 20260502223007 | 77 | 7 | 4.0 | 12.0 | 0.00 | 0.00 | 0.00 | 33 | 1018.6 |
| 20260502222905 | 77 | 5 | 5.0 | 12.0 | 0.00 | 0.00 | 0.00 | 33 | 1018.6 |
| 20260502222805 | 77 | 4 | 5.0 | 12.0 | 0.00 | 0.00 | 0.00 | 33 | 1018.6 |
| 20260502222705 | 77 | 359 | 5.0 | 12.0 | 0.00 | 0.00 | 0.00 | 35 | 1018.6 |
| 20260502222605 | 77 | 358 | 4.0 | 12.0 | 0.00 | 0.00 | 0.00 | 34 | 1018.6 |
| 20260502222405 | 77 | 352 | 5.0 | 10.0 | 0.00 | 0.00 | 0.00 | 35 | 1018.7 |
| 20260502222305 | 77 | 353 | 5.0 | 10.0 | 0.00 | 0.00 | 0.00 | 36 | 1018.7 |
| 20260502222205 | 77 | 353 | 5.0 | 10.0 | 0.00 | 0.00 | 0.00 | 35 | 1018.7 |
| 20260502222105 | 77 | 352 | 6.0 | 10.0 | 0.00 | 0.00 | 0.00 | 34 | 1018.7 |
| 20260502221905 | 77 | 348 | 6.0 | 10.0 | 0.00 | 0.00 | 0.00 | 34 | 1018.7 |
| 20260502221705 | 77 | 342 | 6.0 | 12.0 | 0.00 | 0.00 | 0.00 | 35 | 1018.7 |
| 20260502221604 | 77 | 341 | 6.0 | 12.0 | 0.00 | 0.00 | 0.00 | 34 | 1018.7 |
| 20260502221406 | 77 | 335 | 7.0 | 13.0 | 0.00 | 0.00 | 0.00 | 34 | 1018.7 |
| 20260502221305 | 77 | 330 | 8.0 | 13.0 | 0.00 | 0.00 | 0.00 | 34 | 1018.7 |
| 20260502221204 | 77 | 328 | 7.0 | 13.0 | 0.00 | 0.00 | 0.00 | 36 | 1018.8 |
| 20260502221105 | 77 | 328 | 7.0 | 13.0 | 0.00 | 0.00 | 0.00 | 35 | 1018.7 |
| 20260502221005 | 77 | 327 | 6.0 | 13.0 | 0.00 | 0.00 | 0.00 | 35 | 1018.8 |
| 20260502220805 | 77 | 324 | 5.0 | 13.0 | 0.00 | 0.00 | 0.00 | 35 | 1018.7 |
| 20260502220705 | 77 | 321 | 5.0 | 13.0 | 0.00 | 0.00 | 0.00 | 35 | 1018.6 |
| 20260502220604 | 77 | 323 | 5.0 | 13.0 | 0.00 | 0.00 | 0.00 | 35 | 1018.8 |
| 20260502220506 | 77 | 325 | 4.0 | 13.0 | 0.00 | 0.00 | 0.00 | 35 | 1018.7 |
| 20260502220305 | 76 | 331 | 3.0 | 11.0 | 0.00 | 0.00 | 0.00 | 36 | 1018.7 |
| 20260502220106 | 76 | 330 | 4.0 | 11.0 | 0.00 | 0.00 | 0.00 | 36 | 1018.7 |
| 20260502220005 | 76 | 326 | 4.0 | 11.0 | 0.00 | 0.00 | 0.00 | 36 | 1018.6 |
| 20260502215905 | 76 | 329 | 4.0 | 11.0 | 0.00 | 0.00 | 0.00 | 36 | 1018.7 |
| 20260502215705 | 76 | 331 | 4.0 | 11.0 | 0.00 | 0.00 | 0.00 | 36 | 1018.7 |
| 20260502215605 | 76 | 327 | 5.0 | 11.0 | 0.00 | 0.00 | 0.00 | 35 | 1018.7 |
| 20260502215505 | 76 | 326 | 5.0 | 11.0 | 0.00 | 0.00 | 0.00 | 33 | 1018.7 |
| 20260502215405 | 76 | 328 | 5.0 | 11.0 | 0.00 | 0.00 | 0.00 | 36 | 1018.7 |
| 20260502215305 | 76 | 328 | 5.0 | 11.0 | 0.00 | 0.00 | 0.00 | 37 | 1018.7 |
| 20260502215205 | 76 | 326 | 4.0 | 9.0 | 0.00 | 0.00 | 0.00 | 35 | 1018.7 |
| 20260502215005 | 77 | 334 | 5.0 | 9.0 | 0.00 | 0.00 | 0.00 | 33 | 1018.7 |
| 20260502214905 | 77 | 340 | 5.0 | 10.0 | 0.00 | 0.00 | 0.00 | 33 | 1018.8 |
| 20260502214805 | 77 | 344 | 6.0 | 13.0 | 0.00 | 0.00 | 0.00 | 33 | 1018.8 |
| 20260502214705 | 77 | 349 | 6.0 | 13.0 | 0.00 | 0.00 | 0.00 | 33 | 1018.8 |
| 20260502214405 | 77 | 1 | 5.0 | 13.0 | 0.00 | 0.00 | 0.00 | 34 | 1018.9 |
| 20260502214205 | 76 | 10 | 6.0 | 13.0 | 0.00 | 0.00 | 0.00 | 35 | 1018.9 |
| 20260502214105 | 76 | 12 | 6.0 | 13.0 | 0.00 | 0.00 | 0.00 | 34 | 1018.9 |
| 20260502213905 | 76 | 20 | 5.0 | 13.0 | 0.00 | 0.00 | 0.00 | 35 | 1018.9 |
| 20260502213805 | 76 | 26 | 5.0 | 11.0 | 0.00 | 0.00 | 0.00 | 35 | 1018.9 |
| 20260502213705 | 76 | 30 | 4.0 | 11.0 | 0.00 | 0.00 | 0.00 | 35 | 1018.9 |
| 20260502213505 | 76 | 29 | 4.0 | 11.0 | 0.00 | 0.00 | 0.00 | 35 | 1018.9 |
| 20260502213305 | 76 | 26 | 4.0 | 11.0 | 0.00 | 0.00 | 0.00 | 37 | 1018.9 |
| 20260502213205 | 76 | 18 | 3.0 | 11.0 | 0.00 | 0.00 | 0.00 | 37 | 1019.0 |
| 20260502213005 | 76 | 354 | 3.0 | 8.0 | 0.00 | 0.00 | 0.00 | 35 | 1018.9 |
| 20260502212906 | 77 | 344 | 3.0 | 8.0 | 0.00 | 0.00 | 0.00 | 36 | 1019.1 |
| 20260502212806 | 77 | 340 | 3.0 | 8.0 | 0.00 | 0.00 | 0.00 | 38 | 1019.0 |
| 20260502212705 | 77 | 342 | 4.0 | 8.0 | 0.00 | 0.00 | 0.00 | 38 | 1019.0 |
| 20260502212605 | 77 | 359 | 4.0 | 15.0 | 0.00 | 0.00 | 0.00 | 38 | 1019.0 |
| 20260502212405 | 77 | 15 | 4.0 | 15.0 | 0.00 | 0.00 | 0.00 | 35 | 1019.1 |
| 20260502212305 | 77 | 23 | 4.0 | 15.0 | 0.00 | 0.00 | 0.00 | 35 | 1019.1 |
| 20260502212107 | 77 | 59 | 3.0 | 15.0 | 0.00 | 0.00 | 0.00 | 37 | 1019.1 |
| 20260502211906 | 76 | 77 | 4.0 | 15.0 | 0.00 | 0.00 | 0.00 | 40 | 1019.2 |
| 20260502211805 | 76 | 78 | 3.0 | 15.0 | 0.00 | 0.00 | 0.00 | 40 | 1019.2 |
| 20260502211705 | 75 | 74 | 3.0 | 15.0 | 0.00 | 0.00 | 0.00 | 40 | 1019.2 |
| 20260502211605 | 75 | 75 | 3.0 | 11.0 | 0.00 | 0.00 | 0.00 | 40 | 1019.2 |
| 20260502211404 | 75 | 67 | 3.0 | 11.0 | 0.00 | 0.00 | 0.00 | 35 | 1019.2 |
| 20260502211305 | 75 | 66 | 3.0 | 11.0 | 0.00 | 0.00 | 0.00 | 38 | 1019.2 |
| 20260502211205 | 76 | 62 | 4.0 | 11.0 | 0.00 | 0.00 | 0.00 | 38 | 1019.2 |
| 20260502211105 | 76 | 58 | 3.0 | 11.0 | 0.00 | 0.00 | 0.00 | 39 | 1019.3 |
| 20260502211005 | 76 | 53 | 3.0 | 11.0 | 0.00 | 0.00 | 0.00 | 36 | 1019.3 |
| 20260502210906 | 76 | 46 | 3.0 | 11.0 | 0.00 | 0.00 | 0.00 | 37 | 1019.3 |
| 20260502210705 | 77 | 36 | 3.0 | 11.0 | 0.00 | 0.00 | 0.00 | 38 | 1019.4 |
| 20260502210605 | 76 | 30 | 3.0 | 9.0 | 0.00 | 0.00 | 0.00 | 38 | 1019.4 |
| 20260502210506 | 76 | 31 | 3.0 | 8.0 | 0.00 | 0.00 | 0.00 | 38 | 1019.5 |
| 20260502210405 | 76 | 28 | 3.0 | 8.0 | 0.00 | 0.00 | 0.00 | 38 | 1019.4 |
| 20260502210105 | 77 | 13 | 4.0 | 8.0 | 0.00 | 0.00 | 0.00 | 36 | 1019.5 |
| 20260502210005 | 77 | 12 | 4.0 | 8.0 | 0.00 | 0.00 | 0.00 | 36 | 1019.4 |
| 20260502205905 | 77 | 13 | 4.0 | 9.0 | 0.00 | 0.00 | 0.00 | 38 | 1019.5 |
| 20260502205805 | 77 | 16 | 5.0 | 9.0 | 0.00 | 0.00 | 0.00 | 38 | 1019.6 |
| 20260502205705 | 76 | 22 | 5.0 | 12.0 | 0.00 | 0.00 | 0.00 | 38 | 1019.6 |
| 20260502205605 | 76 | 27 | 5.0 | 12.0 | 0.00 | 0.00 | 0.00 | 38 | 1019.5 |
| 20260502205506 | 76 | 26 | 5.0 | 12.0 | 0.00 | 0.00 | 0.00 | 35 | 1019.5 |
| 20260502205405 | 76 | 30 | 5.0 | 12.0 | 0.00 | 0.00 | 0.00 | 37 | 1019.5 |
| 20260502205306 | 76 | 41 | 5.0 | 12.0 | 0.00 | 0.00 | 0.00 | 38 | 1019.5 |
| 20260502205105 | 76 | 48 | 5.0 | 12.0 | 0.00 | 0.00 | 0.00 | 36 | 1019.5 |
| 20260502205005 | 76 | 54 | 5.0 | 12.0 | 0.00 | 0.00 | 0.00 | 36 | 1019.5 |
| 20260502204904 | 76 | 61 | 6.0 | 12.0 | 0.00 | 0.00 | 0.00 | 36 | 1019.5 |
| 20260502204805 | 76 | 63 | 6.0 | 12.0 | 0.00 | 0.00 | 0.00 | 38 | 1019.6 |
| 20260502204707 | 76 | 67 | 6.0 | 12.0 | 0.00 | 0.00 | 0.00 | 41 | 1019.6 |
| 20260502204605 | 76 | 68 | 7.0 | 12.0 | 0.00 | 0.00 | 0.00 | 40 | 1019.6 |
| 20260502204505 | 76 | 69 | 7.0 | 12.0 | 0.00 | 0.00 | 0.00 | 39 | 1019.7 |
| 20260502204406 | 76 | 66 | 7.0 | 12.0 | 0.00 | 0.00 | 0.00 | 38 | 1019.6 |
| 20260502204305 | 76 | 63 | 7.0 | 12.0 | 0.00 | 0.00 | 0.00 | 41 | 1019.6 |
| 20260502204205 | 76 | 63 | 7.0 | 12.0 | 0.00 | 0.00 | 0.00 | 41 | 1019.7 |
| 20260502204004 | 75 | 64 | 7.0 | 12.0 | 0.00 | 0.00 | 0.00 | 40 | 1019.7 |
| 20260502203905 | 76 | 63 | 6.0 | 12.0 | 0.00 | 0.00 | 0.00 | 38 | 1019.6 |
| 20260502203804 | 76 | 64 | 5.0 | 12.0 | 0.00 | 0.00 | 0.00 | 38 | 1019.7 |
| 20260502203705 | 76 | 62 | 5.0 | 12.0 | 0.00 | 0.00 | 0.00 | 40 | 1019.6 |
| 20260502203605 | 76 | 62 | 5.0 | 12.0 | 0.00 | 0.00 | 0.00 | 40 | 1019.7 |
| 20260502203505 | 76 | 63 | 5.0 | 12.0 | 0.00 | 0.00 | 0.00 | 40 | 1019.7 |
| 20260502203405 | 76 | 65 | 4.0 | 12.0 | 0.00 | 0.00 | 0.00 | 37 | 1019.7 |
| 20260502203304 | 76 | 67 | 4.0 | 12.0 | 0.00 | 0.00 | 0.00 | 38 | 1019.7 |
| 20260502203206 | 76 | 68 | 4.0 | 12.0 | 0.00 | 0.00 | 0.00 | 39 | 1019.7 |
| 20260502203105 | 75 | 74 | 3.0 | 11.0 | 0.00 | 0.00 | 0.00 | 36 | 1019.7 |
| 20260502203005 | 75 | 73 | 4.0 | 11.0 | 0.00 | 0.00 | 0.00 | 35 | 1019.8 |
| 20260502202906 | 76 | 71 | 4.0 | 11.0 | 0.00 | 0.00 | 0.00 | 34 | 1019.8 |
| 20260502202805 | 76 | 65 | 4.0 | 11.0 | 0.00 | 0.00 | 0.00 | 34 | 1019.9 |
| 20260502202705 | 76 | 59 | 4.0 | 11.0 | 0.00 | 0.00 | 0.00 | 34 | 1019.9 |
| 20260502202605 | 76 | 59 | 4.0 | 11.0 | 0.00 | 0.00 | 0.00 | 37 | 1019.9 |
| 20260502202505 | 76 | 60 | 5.0 | 11.0 | 0.00 | 0.00 | 0.00 | 40 | 1019.9 |
| 20260502202405 | 75 | 58 | 6.0 | 14.0 | 0.00 | 0.00 | 0.00 | 38 | 1019.9 |
| 20260502202305 | 75 | 61 | 6.0 | 14.0 | 0.00 | 0.00 | 0.00 | 36 | 1019.9 |
| 20260502202205 | 75 | 61 | 6.0 | 14.0 | 0.00 | 0.00 | 0.00 | 39 | 1020.0 |
| 20260502202105 | 75 | 57 | 7.0 | 14.0 | 0.00 | 0.00 | 0.00 | 39 | 1019.9 |
| 20260502202004 | 75 | 55 | 7.0 | 14.0 | 0.00 | 0.00 | 0.00 | 38 | 1019.8 |
| 20260502201905 | 75 | 55 | 7.0 | 14.0 | 0.00 | 0.00 | 0.00 | 37 | 1019.9 |
| 20260502201805 | 75 | 56 | 6.0 | 14.0 | 0.00 | 0.00 | 0.00 | 37 | 1019.9 |
| 20260502201605 | 76 | 50 | 6.0 | 14.0 | 0.00 | 0.00 | 0.00 | 37 | 1019.9 |
| 20260502201505 | 76 | 47 | 5.0 | 14.0 | 0.00 | 0.00 | 0.00 | 37 | 1019.9 |
| 20260502201405 | 76 | 47 | 4.0 | 14.0 | 0.00 | 0.00 | 0.00 | 37 | 1019.9 |
| 20260502201305 | 76 | 41 | 4.0 | 10.0 | 0.00 | 0.00 | 0.00 | 37 | 1019.9 |
| 20260502201205 | 76 | 37 | 4.0 | 11.0 | 0.00 | 0.00 | 0.00 | 38 | 1020.0 |
| 20260502201105 | 76 | 36 | 5.0 | 13.0 | 0.00 | 0.00 | 0.00 | 38 | 1020.0 |
| 20260502201005 | 76 | 36 | 5.0 | 13.0 | 0.00 | 0.00 | 0.00 | 39 | 1020.0 |
| 20260502200905 | 76 | 38 | 6.0 | 14.0 | 0.00 | 0.00 | 0.00 | 37 | 1020.0 |
| 20260502200805 | 76 | 39 | 6.0 | 14.0 | 0.00 | 0.00 | 0.00 | 38 | 1020.0 |
| 20260502200705 | 75 | 43 | 7.0 | 14.0 | 0.00 | 0.00 | 0.00 | 38 | 1020.0 |
| 20260502200604 | 75 | 45 | 7.0 | 14.0 | 0.00 | 0.00 | 0.00 | 38 | 1020.0 |
| 20260502200505 | 75 | 44 | 8.0 | 15.0 | 0.00 | 0.00 | 0.00 | 39 | 1020.0 |
| 20260502200305 | 75 | 42 | 8.0 | 15.0 | 0.00 | 0.00 | 0.00 | 36 | 1020.1 |
| 20260502200205 | 75 | 40 | 8.0 | 15.0 | 0.00 | 0.00 | 0.00 | 36 | 1020.0 |
| 20260502200005 | 76 | 42 | 7.0 | 15.0 | 0.00 | 0.00 | 0.00 | 36 | 1019.9 |
| 20260502195805 | 76 | 42 | 6.0 | 15.0 | 0.00 | 0.00 | 0.00 | 37 | 1019.9 |
| 20260502195705 | 76 | 44 | 6.0 | 15.0 | 0.00 | 0.00 | 0.00 | 38 | 1019.9 |
| 20260502195505 | 76 | 53 | 6.0 | 14.0 | 0.00 | 0.00 | 0.00 | 36 | 1019.9 |
| 20260502195404 | 76 | 58 | 6.0 | 14.0 | 0.00 | 0.00 | 0.00 | 36 | 1019.9 |
| 20260502195305 | 76 | 63 | 6.0 | 14.0 | 0.00 | 0.00 | 0.00 | 38 | 1020.0 |
| 20260502195205 | 76 | 67 | 6.0 | 14.0 | 0.00 | 0.00 | 0.00 | 40 | 1020.0 |
| 20260502195105 | 76 | 68 | 6.0 | 13.0 | 0.00 | 0.00 | 0.00 | 41 | 1020.0 |
| 20260502195004 | 75 | 67 | 7.0 | 13.0 | 0.00 | 0.00 | 0.00 | 41 | 1020.0 |
| 20260502194905 | 75 | 64 | 7.0 | 13.0 | 0.00 | 0.01 | 0.00 | 41 | 1020.0 |
| 20260502194804 | 74 | 59 | 8.0 | 14.0 | 0.00 | 0.01 | 0.00 | 39 | 1020.0 |
| 20260502194705 | 74 | 55 | 8.0 | 15.0 | 0.00 | 0.01 | 0.00 | 40 | 1020.0 |
| 20260502194605 | 74 | 49 | 8.0 | 15.0 | 0.00 | 0.01 | 0.00 | 40 | 1020.0 |
| 20260502194505 | 74 | 46 | 7.0 | 15.0 | 0.00 | 0.01 | 0.00 | 41 | 1020.1 |
| 20260502194405 | 73 | 41 | 7.0 | 15.0 | 0.00 | 0.01 | 0.00 | 41 | 1020.1 |
| 20260502194305 | 73 | 38 | 7.0 | 15.0 | 0.00 | 0.01 | 0.00 | 40 | 1020.1 |
| 20260502194105 | 73 | 31 | 6.0 | 15.0 | 0.00 | 0.01 | 0.00 | 40 | 1020.0 |
| 20260502194005 | 73 | 30 | 6.0 | 15.0 | 0.00 | 0.01 | 0.00 | 39 | 1020.1 |
| 20260502193804 | 74 | 32 | 6.0 | 15.0 | 0.00 | 0.01 | 0.00 | 40 | 1020.0 |
| 20260502193705 | 74 | 31 | 6.0 | 13.0 | 0.00 | 0.01 | 0.00 | 37 | 1019.9 |
| 20260502193507 | 76 | 37 | 6.0 | 13.0 | 0.00 | 0.01 | 0.00 | 41 | 1020.1 |
| 20260502193405 | 76 | 38 | 6.0 | 13.0 | 0.00 | 0.01 | 0.00 | 40 | 1020.1 |
| 20260502193305 | 76 | 38 | 6.0 | 13.0 | 0.00 | 0.01 | 0.00 | 42 | 1020.1 |
| 20260502193205 | 76 | 35 | 5.0 | 13.0 | 0.00 | 0.01 | 0.00 | 42 | 1020.1 |
| 20260502193005 | 76 | 35 | 5.0 | 13.0 | 0.00 | 0.01 | 0.00 | 42 | 1020.1 |
| 20260502192905 | 76 | 31 | 5.0 | 13.0 | 0.00 | 0.01 | 0.00 | 42 | 1020.1 |
| 20260502192805 | 75 | 31 | 5.0 | 13.0 | 0.00 | 0.01 | 0.00 | 39 | 1020.0 |
| 20260502192705 | 75 | 31 | 5.0 | 14.0 | 0.00 | 0.01 | 0.00 | 42 | 1020.0 |
| 20260502192605 | 75 | 28 | 5.0 | 14.0 | 0.00 | 0.01 | 0.00 | 43 | 1020.0 |
| 20260502192505 | 74 | 26 | 5.0 | 14.0 | 0.00 | 0.01 | 0.00 | 43 | 1020.1 |
| 20260502192405 | 74 | 27 | 5.0 | 14.0 | 0.00 | 0.01 | 0.00 | 43 | 1020.1 |
| 20260502192305 | 74 | 25 | 5.0 | 14.0 | 0.00 | 0.01 | 0.00 | 43 | 1020.0 |
| 20260502192205 | 74 | 22 | 5.0 | 14.0 | 0.00 | 0.01 | 0.00 | 44 | 1020.1 |
| 20260502192105 | 74 | 23 | 5.0 | 14.0 | 0.00 | 0.01 | 0.00 | 42 | 1020.1 |
| 20260502192005 | 74 | 23 | 5.0 | 14.0 | 0.00 | 0.01 | 0.00 | 42 | 1020.1 |
| 20260502191905 | 74 | 26 | 5.0 | 14.0 | 0.00 | 0.01 | 0.00 | 45 | 1020.1 |
| 20260502191705 | 75 | 27 | 4.0 | 12.0 | 0.00 | 0.01 | 0.00 | 41 | 1020.1 |
| 20260502191605 | 75 | 30 | 4.0 | 12.0 | 0.00 | 0.01 | 0.00 | 43 | 1020.1 |
| 20260502191505 | 75 | 31 | 4.0 | 12.0 | 0.00 | 0.01 | 0.00 | 42 | 1020.0 |
| 20260502191405 | 75 | 29 | 5.0 | 12.0 | 0.00 | 0.01 | 0.00 | 41 | 1020.1 |
| 20260502191205 | 76 | 30 | 5.0 | 15.0 | 0.00 | 0.01 | 0.00 | 40 | 1020.1 |
| 20260502191105 | 76 | 27 | 4.0 | 15.0 | 0.00 | 0.01 | 0.00 | 44 | 1020.1 |
| 20260502190906 | 75 | 30 | 5.0 | 15.0 | 0.00 | 0.01 | 0.00 | 44 | 1020.0 |
| 20260502190705 | 75 | 26 | 5.0 | 15.0 | 0.00 | 0.01 | 0.00 | 42 | 1020.1 |
| 20260502190605 | 75 | 26 | 5.0 | 15.0 | 0.00 | 0.01 | 0.00 | 41 | 1020.1 |
| 20260502190505 | 76 | 29 | 5.0 | 15.0 | 0.00 | 0.01 | 0.00 | 40 | 1020.1 |
| 20260502190404 | 76 | 31 | 5.0 | 15.0 | 0.00 | 0.01 | 0.00 | 42 | 1020.1 |
| 20260502190305 | 76 | 34 | 4.0 | 12.0 | 0.00 | 0.01 | 0.00 | 42 | 1020.0 |
| 20260502190204 | 75 | 35 | 4.0 | 11.0 | 0.00 | 0.01 | 0.00 | 42 | 1020.1 |
| 20260502190105 | 75 | 39 | 4.0 | 11.0 | 0.00 | 0.01 | 0.00 | 44 | 1020.0 |
| 20260502190005 | 75 | 38 | 4.0 | 11.0 | 0.00 | 0.01 | 0.00 | 44 | 1020.1 |
| 20260502185905 | 74 | 39 | 4.0 | 11.0 | 0.00 | 0.01 | 0.00 | 43 | 1020.1 |
| 20260502185804 | 74 | 46 | 3.0 | 11.0 | 0.00 | 0.01 | 0.00 | 43 | 1020.1 |
| 20260502185705 | 74 | 54 | 4.0 | 8.0 | 0.00 | 0.01 | 0.00 | 43 | 1020.1 |
| 20260502185605 | 74 | 55 | 4.0 | 9.0 | 0.00 | 0.01 | 0.00 | 43 | 1020.1 |
| 20260502185505 | 74 | 50 | 4.0 | 10.0 | 0.00 | 0.01 | 0.00 | 43 | 1020.2 |
| 20260502185405 | 74 | 45 | 4.0 | 13.0 | 0.00 | 0.01 | 0.00 | 43 | 1020.2 |
| 20260502185305 | 74 | 43 | 4.0 | 13.0 | 0.00 | 0.01 | 0.00 | 44 | 1020.2 |
| 20260502185205 | 73 | 45 | 5.0 | 13.0 | 0.00 | 0.01 | 0.00 | 42 | 1020.2 |
| 20260502185105 | 74 | 44 | 5.0 | 13.0 | 0.00 | 0.01 | 0.00 | 42 | 1020.3 |
| 20260502185005 | 73 | 47 | 5.0 | 13.0 | 0.00 | 0.01 | 0.00 | 42 | 1020.2 |
| 20260502184806 | 74 | 48 | 5.0 | 13.0 | 0.00 | 0.01 | 0.00 | 40 | 1020.3 |
| 20260502184705 | 74 | 44 | 5.0 | 13.0 | 0.00 | 0.01 | 0.00 | 41 | 1020.3 |
| 20260502184605 | 75 | 43 | 5.0 | 14.0 | 0.00 | 0.01 | 0.00 | 41 | 1020.3 |
| 20260502184505 | 75 | 45 | 5.0 | 15.0 | 0.00 | 0.01 | 0.00 | 44 | 1020.4 |
| 20260502184406 | 74 | 43 | 5.0 | 15.0 | 0.00 | 0.01 | 0.00 | 44 | 1020.3 |
| 20260502184305 | 74 | 42 | 5.0 | 15.0 | 0.00 | 0.01 | 0.00 | 44 | 1020.4 |
| 20260502184105 | 73 | 43 | 5.0 | 15.0 | 0.00 | 0.01 | 0.00 | 40 | 1020.4 |
| 20260502183805 | 74 | 29 | 6.0 | 15.0 | 0.00 | 0.01 | 0.00 | 46 | 1020.5 |
| 20260502183705 | 74 | 24 | 6.0 | 15.0 | 0.00 | 0.02 | 0.00 | 46 | 1020.6 |
| 20260502183405 | 74 | 11 | 6.0 | 11.0 | 0.00 | 0.02 | 0.00 | 44 | 1020.5 |
| 20260502183304 | 74 | 10 | 6.0 | 11.0 | 0.00 | 0.02 | 0.00 | 43 | 1020.6 |
| 20260502183205 | 74 | 6 | 6.0 | 11.0 | 0.00 | 0.02 | 0.00 | 43 | 1020.6 |
| 20260502183105 | 74 | 1 | 6.0 | 11.0 | 0.00 | 0.02 | 0.00 | 43 | 1020.7 |
| 20260502183005 | 74 | 358 | 6.0 | 11.0 | 0.00 | 0.02 | 0.00 | 43 | 1020.7 |
| 20260502182905 | 74 | 1 | 6.0 | 11.0 | 0.00 | 0.02 | 0.00 | 44 | 1020.7 |
| 20260502182805 | 74 | 2 | 5.0 | 11.0 | 0.00 | 0.02 | 0.00 | 44 | 1020.7 |
| 20260502182704 | 74 | 3 | 5.0 | 11.0 | 0.00 | 0.02 | 0.00 | 45 | 1020.7 |
| 20260502182605 | 74 | 4 | 5.0 | 11.0 | 0.00 | 0.02 | 0.00 | 45 | 1020.7 |
| 20260502182504 | 74 | 7 | 4.0 | 11.0 | 0.00 | 0.02 | 0.00 | 45 | 1020.8 |
| 20260502182405 | 73 | 8 | 4.0 | 12.0 | 0.00 | 0.02 | 0.00 | 45 | 1020.7 |
| 20260502182305 | 73 | 9 | 5.0 | 12.0 | 0.00 | 0.02 | 0.00 | 44 | 1020.8 |
| 20260502182205 | 73 | 12 | 5.0 | 12.0 | 0.00 | 0.02 | 0.00 | 44 | 1020.9 |
| 20260502182105 | 73 | 13 | 5.0 | 13.0 | 0.00 | 0.02 | 0.00 | 42 | 1020.8 |
| 20260502182005 | 73 | 9 | 5.0 | 13.0 | 0.00 | 0.02 | 0.00 | 42 | 1020.9 |
| 20260502181905 | 73 | 2 | 6.0 | 14.0 | 0.00 | 0.02 | 0.00 | 42 | 1020.9 |
| 20260502181806 | 74 | 1 | 6.0 | 14.0 | 0.00 | 0.02 | 0.00 | 42 | 1020.9 |
| 20260502181706 | 74 | 358 | 6.0 | 14.0 | 0.00 | 0.02 | 0.00 | 45 | 1020.9 |
| 20260502181605 | 74 | 357 | 6.0 | 14.0 | 0.00 | 0.02 | 0.00 | 42 | 1021.0 |
| 20260502181504 | 74 | 355 | 6.0 | 14.0 | 0.00 | 0.02 | 0.00 | 44 | 1021.0 |
| 20260502181304 | 74 | 353 | 5.0 | 14.0 | 0.00 | 0.02 | 0.00 | 43 | 1021.0 |
| 20260502181105 | 74 | 345 | 5.0 | 14.0 | 0.00 | 0.02 | 0.00 | 43 | 1021.0 |
| 20260502181005 | 74 | 345 | 5.0 | 14.0 | 0.00 | 0.02 | 0.00 | 43 | 1021.1 |
| 20260502180905 | 73 | 349 | 5.0 | 11.0 | 0.00 | 0.02 | 0.00 | 44 | 1021.1 |
| 20260502180704 | 73 | 353 | 5.0 | 11.0 | 0.00 | 0.02 | 0.00 | 44 | 1021.2 |
| 20260502180605 | 72 | 353 | 5.0 | 11.0 | 0.00 | 0.02 | 0.00 | 44 | 1021.2 |
| 20260502180504 | 72 | 349 | 6.0 | 11.0 | 0.00 | 0.02 | 0.00 | 43 | 1021.2 |
| 20260502180405 | 72 | 346 | 6.0 | 11.0 | 0.00 | 0.02 | 0.00 | 44 | 1021.3 |
| 20260502180304 | 73 | 343 | 6.0 | 11.0 | 0.00 | 0.02 | 0.00 | 44 | 1021.2 |
| 20260502180205 | 73 | 346 | 6.0 | 11.0 | 0.00 | 0.02 | 0.00 | 44 | 1021.3 |
| 20260502170505 | 71 | 352 | 4.0 | 10.0 | 0.00 | 0.03 | 0.00 | 49 | 1021.9 |
| 20260502170404 | 71 | 347 | 4.0 | 10.0 | 0.00 | 0.03 | 0.00 | 51 | 1021.9 |
| 20260502170305 | 71 | 340 | 3.0 | 10.0 | 0.00 | 0.03 | 0.00 | 54 | 1021.9 |
| 20260502170205 | 71 | 340 | 3.0 | 9.0 | 0.00 | 0.03 | 0.00 | 54 | 1021.9 |
| 20260502170105 | 71 | 344 | 3.0 | 9.0 | 0.00 | 0.03 | 0.00 | 53 | 1021.9 |
| 20260502164205 | 69 | 349 | 5.0 | 9.0 | 0.00 | 0.03 | 0.00 | 52 | 1022.0 |
| 20260502164104 | 69 | 351 | 4.0 | 9.0 | 0.00 | 0.03 | 0.00 | 52 | 1022.0 |
| 20260502164005 | 69 | 352 | 4.0 | 9.0 | 0.00 | 0.03 | 0.00 | 53 | 1022.0 |
| 20260502163905 | 69 | 354 | 4.0 | 9.0 | 0.00 | 0.03 | 0.00 | 53 | 1022.0 |
| 20260502163805 | 69 | 356 | 4.0 | 10.0 | 0.00 | 0.03 | 0.00 | 53 | 1022.0 |
| 20260502163704 | 69 | 355 | 4.0 | 10.0 | 0.00 | 0.03 | 0.00 | 52 | 1022.0 |
| 20260502163505 | 69 | 354 | 4.0 | 10.0 | 0.00 | 0.03 | 0.00 | 55 | 1022.1 |
| 20260502163405 | 69 | 353 | 4.0 | 10.0 | 0.00 | 0.03 | 0.00 | 55 | 1022.1 |
| 20260502163305 | 69 | 355 | 4.0 | 10.0 | 0.00 | 0.03 | 0.00 | 56 | 1022.1 |
| 20260502163204 | 69 | 352 | 4.0 | 10.0 | 0.00 | 0.03 | 0.00 | 54 | 1022.1 |
| 20260502163105 | 68 | 350 | 4.0 | 10.0 | 0.00 | 0.03 | 0.00 | 54 | 1022.1 |
| 20260502163004 | 68 | 351 | 4.0 | 10.0 | 0.00 | 0.03 | 0.00 | 54 | 1022.1 |
| 20260502162905 | 68 | 350 | 4.0 | 10.0 | 0.00 | 0.03 | 0.00 | 53 | 1022.1 |
| 20260502162805 | 68 | 347 | 4.0 | 10.0 | 0.00 | 0.03 | 0.00 | 53 | 1022.1 |
| 20260502162505 | 68 | 342 | 4.0 | 10.0 | 0.00 | 0.03 | 0.00 | 55 | 1022.2 |
| 20260502162405 | 69 | 340 | 4.0 | 10.0 | 0.00 | 0.03 | 0.00 | 55 | 1022.1 |
| 20260502162305 | 69 | 337 | 4.0 | 10.0 | 0.00 | 0.03 | 0.00 | 55 | 1022.2 |
| 20260502162204 | 69 | 333 | 5.0 | 11.0 | 0.00 | 0.03 | 0.00 | 54 | 1022.1 |
| 20260502162004 | 68 | 328 | 6.0 | 13.0 | 0.00 | 0.03 | 0.00 | 54 | 1022.1 |
| 20260502161805 | 68 | 328 | 7.0 | 14.0 | 0.00 | 0.03 | 0.00 | 54 | 1022.1 |
| 20260502161704 | 68 | 328 | 7.0 | 14.0 | 0.00 | 0.03 | 0.00 | 54 | 1022.1 |
| 20260502161606 | 68 | 327 | 7.0 | 14.0 | 0.00 | 0.03 | 0.00 | 54 | 1022.2 |
| 20260502161504 | 68 | 327 | 7.0 | 14.0 | 0.00 | 0.03 | 0.00 | 54 | 1022.2 |
| 20260502161405 | 68 | 330 | 7.0 | 14.0 | 0.00 | 0.03 | 0.00 | 55 | 1022.2 |
| 20260502161304 | 68 | 331 | 7.0 | 14.0 | 0.00 | 0.03 | 0.00 | 55 | 1022.1 |
| 20260502161204 | 68 | 331 | 6.0 | 14.0 | 0.00 | 0.03 | 0.00 | 55 | 1022.2 |
| 20260502161105 | 68 | 332 | 6.0 | 14.0 | 0.00 | 0.03 | 0.00 | 55 | 1022.1 |
| 20260502161005 | 68 | 332 | 6.0 | 14.0 | 0.00 | 0.03 | 0.00 | 55 | 1022.1 |
| 20260502160904 | 67 | 332 | 6.0 | 12.0 | 0.00 | 0.03 | 0.00 | 56 | 1022.1 |
| 20260502160805 | 67 | 332 | 6.0 | 12.0 | 0.00 | 0.03 | 0.00 | 55 | 1022.0 |
| 20260502160704 | 68 | 335 | 6.0 | 12.0 | 0.00 | 0.03 | 0.00 | 56 | 1022.1 |
| 20260502160605 | 67 | 340 | 6.0 | 12.0 | 0.00 | 0.03 | 0.00 | 56 | 1022.0 |
| 20260502160504 | 67 | 346 | 6.0 | 12.0 | 0.00 | 0.03 | 0.00 | 54 | 1022.1 |
| 20260502160405 | 67 | 344 | 6.0 | 12.0 | 0.00 | 0.03 | 0.00 | 54 | 1022.1 |
| 20260502160304 | 67 | 342 | 6.0 | 12.0 | 0.00 | 0.03 | 0.00 | 56 | 1022.1 |
| 20260502160205 | 67 | 341 | 7.0 | 12.0 | 0.00 | 0.03 | 0.00 | 56 | 1022.1 |
| 20260502160104 | 67 | 339 | 7.0 | 14.0 | 0.00 | 0.03 | 0.00 | 57 | 1022.0 |
| 20260502152204 | 65 | 312 | 3.0 | 7.0 | 0.00 | 0.03 | 0.00 | 60 | 1021.9 |
| 20260502152105 | 64 | 313 | 3.0 | 7.0 | 0.00 | 0.03 | 0.00 | 58 | 1021.9 |
| 20260502151904 | 64 | 311 | 3.0 | 7.0 | 0.00 | 0.03 | 0.00 | 56 | 1021.9 |
| 20260502151804 | 64 | 314 | 3.0 | 7.0 | 0.00 | 0.03 | 0.00 | 58 | 1021.9 |
| 20260502151504 | 64 | 319 | 2.0 | 7.0 | 0.00 | 0.04 | 0.00 | 57 | 1021.9 |
| 20260502151304 | 64 | 318 | 2.0 | 7.0 | 0.00 | 0.04 | 0.00 | 60 | 1021.9 |
| 20260502151204 | 64 | 314 | 2.0 | 7.0 | 0.00 | 0.04 | 0.00 | 60 | 1021.9 |
| 20260502151105 | 64 | 314 | 3.0 | 7.0 | 0.00 | 0.04 | 0.00 | 59 | 1022.0 |
| 20260502151004 | 64 | 317 | 3.0 | 7.0 | 0.00 | 0.04 | 0.00 | 60 | 1021.9 |
| 20260502150905 | 64 | 319 | 3.0 | 7.0 | 0.00 | 0.04 | 0.00 | 62 | 1022.0 |
| 20260502150805 | 64 | 315 | 3.0 | 7.0 | 0.00 | 0.04 | 0.00 | 60 | 1022.0 |
| 20260502150705 | 64 | 310 | 3.0 | 7.0 | 0.00 | 0.04 | 0.00 | 60 | 1021.9 |
| 20260502150606 | 64 | 309 | 3.0 | 7.0 | 0.00 | 0.04 | 0.00 | 61 | 1021.9 |
| 20260502150504 | 64 | 305 | 3.0 | 7.0 | 0.00 | 0.04 | 0.00 | 61 | 1021.9 |
| 20260502150404 | 64 | 303 | 4.0 | 7.0 | 0.00 | 0.04 | 0.00 | 61 | 1021.9 |
| 20260502150305 | 63 | 303 | 4.0 | 7.0 | 0.00 | 0.04 | 0.00 | 61 | 1021.9 |
| 20260502150204 | 63 | 303 | 4.0 | 6.0 | 0.00 | 0.04 | 0.00 | 60 | 1021.9 |
| 20260502140104 | 59 | 309 | 4.0 | 9.0 | 0.00 | 0.05 | 0.00 | 74 | 1021.6 |
| 20260502130704 | 54 | 305 | 4.0 | 9.0 | 0.00 | 0.07 | 0.00 | 83 | 1021.0 |
| 20260502130605 | 54 | 306 | 4.0 | 8.0 | 0.00 | 0.07 | 0.00 | 83 | 1021.0 |
| 20260502130504 | 53 | 306 | 4.0 | 7.0 | 0.00 | 0.07 | 0.00 | 83 | 1021.0 |
| 20260502130405 | 53 | 306 | 4.0 | 7.0 | 0.00 | 0.07 | 0.00 | 83 | 1021.0 |
| 20260502130304 | 53 | 306 | 4.0 | 7.0 | 0.00 | 0.07 | 0.00 | 83 | 1020.9 |
| 20260502130205 | 53 | 306 | 4.0 | 7.0 | 0.00 | 0.07 | 0.00 | 84 | 1020.9 |
| 20260502130104 | 53 | 307 | 4.0 | 7.0 | 0.00 | 0.07 | 0.00 | 84 | 1021.0 |
| 20260502123604 | 50 | 301 | 4.0 | 8.0 | 0.00 | 0.07 | 0.00 | 88 | 1020.6 |
| 20260502123404 | 50 | 298 | 4.0 | 7.0 | 0.00 | 0.07 | 0.00 | 89 | 1020.6 |
| 20260502123304 | 50 | 298 | 4.0 | 7.0 | 0.00 | 0.07 | 0.00 | 89 | 1020.6 |
| 20260502123004 | 50 | 294 | 4.0 | 7.0 | 0.00 | 0.07 | 0.00 | 89 | 1020.6 |
| 20260502122904 | 50 | 293 | 4.0 | 7.0 | 0.00 | 0.07 | 0.00 | 89 | 1020.5 |
| 20260502122804 | 50 | 292 | 4.0 | 7.0 | 0.00 | 0.07 | 0.00 | 89 | 1020.4 |
| 20260502122704 | 50 | 292 | 4.0 | 7.0 | 0.00 | 0.07 | 0.00 | 89 | 1020.4 |
| 20260502122604 | 50 | 292 | 4.0 | 8.0 | 0.00 | 0.07 | 0.00 | 89 | 1020.4 |
| 20260502122505 | 50 | 291 | 4.0 | 8.0 | 0.00 | 0.07 | 0.00 | 89 | 1020.4 |
| 20260502122405 | 49 | 291 | 5.0 | 8.0 | 0.00 | 0.07 | 0.00 | 89 | 1020.3 |
| 20260502122306 | 49 | 291 | 5.0 | 8.0 | 0.00 | 0.07 | 0.00 | 90 | 1020.3 |
| 20260502122205 | 49 | 291 | 5.0 | 8.0 | 0.00 | 0.07 | 0.00 | 90 | 1020.3 |
| 20260502122104 | 49 | 291 | 5.0 | 8.0 | 0.00 | 0.07 | 0.00 | 90 | 1020.2 |
| 20260502122005 | 49 | 291 | 5.0 | 8.0 | 0.00 | 0.07 | 0.00 | 90 | 1020.2 |
| 20260502121904 | 49 | 291 | 5.0 | 8.0 | 0.00 | 0.07 | 0.00 | 90 | 1020.2 |
| 20260502121805 | 49 | 291 | 5.0 | 8.0 | 0.00 | 0.07 | 0.00 | 90 | 1020.2 |
| 20260502121704 | 49 | 290 | 5.0 | 8.0 | 0.00 | 0.07 | 0.00 | 90 | 1020.2 |
| 20260502121604 | 49 | 290 | 5.0 | 8.0 | 0.00 | 0.07 | 0.00 | 90 | 1020.2 |
| 20260502121505 | 49 | 290 | 5.0 | 8.0 | 0.00 | 0.07 | 0.00 | 90 | 1020.2 |
| 20260502121404 | 49 | 291 | 4.0 | 8.0 | 0.00 | 0.08 | 0.00 | 90 | 1020.1 |
| 20260502121304 | 49 | 291 | 4.0 | 8.0 | 0.00 | 0.08 | 0.00 | 90 | 1020.1 |
| 20260502121204 | 49 | 290 | 4.0 | 8.0 | 0.00 | 0.08 | 0.00 | 90 | 1020.1 |
| 20260502121104 | 49 | 290 | 4.0 | 8.0 | 0.00 | 0.08 | 0.00 | 90 | 1020.0 |
| 20260502121005 | 49 | 291 | 4.0 | 8.0 | 0.00 | 0.08 | 0.00 | 90 | 1020.0 |
| 20260502120904 | 48 | 291 | 4.0 | 8.0 | 0.00 | 0.08 | 0.00 | 90 | 1020.0 |
| 20260502120805 | 48 | 291 | 4.0 | 8.0 | 0.00 | 0.08 | 0.00 | 90 | 1019.9 |
| 20260502120605 | 48 | 291 | 4.0 | 8.0 | 0.00 | 0.08 | 0.00 | 90 | 1019.9 |
| 20260502120505 | 48 | 291 | 4.0 | 7.0 | 0.00 | 0.08 | 0.00 | 90 | 1019.8 |
| 20260502120304 | 48 | 290 | 4.0 | 7.0 | 0.00 | 0.08 | 0.00 | 90 | 1019.8 |
| 20260502120205 | 48 | 289 | 4.0 | 7.0 | 0.00 | 0.08 | 0.00 | 90 | 1019.8 |
| 20260502120104 | 48 | 289 | 4.0 | 7.0 | 0.00 | 0.08 | 0.00 | 91 | 1019.7 |
| 20260502115904 | 48 | 287 | 4.0 | 7.0 | 0.00 | 0.08 | 0.00 | 90 | 1019.7 |
| 20260502115804 | 48 | 287 | 4.0 | 7.0 | 0.00 | 0.08 | 0.00 | 91 | 1019.7 |
| 20260502115705 | 48 | 287 | 4.0 | 6.0 | 0.00 | 0.08 | 0.00 | 91 | 1019.6 |
| 20260502115604 | 48 | 286 | 4.0 | 6.0 | 0.00 | 0.08 | 0.00 | 91 | 1019.6 |
| 20260502115505 | 48 | 285 | 4.0 | 6.0 | 0.00 | 0.08 | 0.00 | 91 | 1019.6 |
| 20260502115404 | 48 | 286 | 4.0 | 6.0 | 0.00 | 0.08 | 0.00 | 91 | 1019.6 |
| 20260502115306 | 48 | 286 | 4.0 | 6.0 | 0.00 | 0.08 | 0.00 | 91 | 1019.6 |
| 20260502115205 | 48 | 286 | 4.0 | 6.0 | 0.00 | 0.08 | 0.00 | 91 | 1019.6 |
| 20260502115104 | 48 | 287 | 4.0 | 5.0 | 0.00 | 0.08 | 0.00 | 91 | 1019.6 |
| 20260502115005 | 48 | 287 | 4.0 | 5.0 | 0.00 | 0.08 | 0.00 | 91 | 1019.5 |
| 20260502114904 | 48 | 287 | 4.0 | 5.0 | 0.00 | 0.08 | 0.00 | 91 | 1019.5 |
| 20260502114805 | 48 | 287 | 4.0 | 5.0 | 0.00 | 0.08 | 0.00 | 91 | 1019.5 |
| 20260502114605 | 48 | 287 | 4.0 | 5.0 | 0.00 | 0.08 | 0.00 | 91 | 1019.5 |
| 20260502114504 | 48 | 287 | 4.0 | 5.0 | 0.00 | 0.08 | 0.00 | 91 | 1019.5 |
| 20260502114404 | 48 | 288 | 4.0 | 5.0 | 0.00 | 0.08 | 0.00 | 91 | 1019.4 |
| 20260502114305 | 48 | 287 | 3.0 | 5.0 | 0.00 | 0.08 | 0.00 | 91 | 1019.5 |
| 20260502114104 | 48 | 286 | 3.0 | 5.0 | 0.00 | 0.08 | 0.00 | 91 | 1019.4 |
| 20260502114005 | 48 | 285 | 3.0 | 5.0 | 0.00 | 0.08 | 0.00 | 91 | 1019.4 |
| 20260502113905 | 48 | 285 | 3.0 | 5.0 | 0.00 | 0.08 | 0.00 | 91 | 1019.4 |
| 20260502113804 | 48 | 284 | 3.0 | 4.0 | 0.00 | 0.08 | 0.00 | 91 | 1019.4 |
| 20260502113605 | 48 | 285 | 3.0 | 4.0 | 0.00 | 0.08 | 0.00 | 91 | 1019.3 |
| 20260502113504 | 48 | 286 | 3.0 | 5.0 | 0.00 | 0.08 | 0.00 | 91 | 1019.3 |
| 20260502113405 | 48 | 286 | 3.0 | 5.0 | 0.00 | 0.08 | 0.00 | 91 | 1019.3 |
| 20260502113304 | 48 | 288 | 3.0 | 5.0 | 0.00 | 0.08 | 0.00 | 91 | 1019.4 |
| 20260502113204 | 48 | 288 | 3.0 | 5.0 | 0.00 | 0.08 | 0.00 | 91 | 1019.3 |
| 20260502113004 | 48 | 290 | 3.0 | 5.0 | 0.00 | 0.09 | 0.00 | 91 | 1019.3 |
| 20260502112804 | 48 | 292 | 3.0 | 5.0 | 0.00 | 0.09 | 0.00 | 91 | 1019.3 |
| 20260502112703 | 48 | 292 | 3.0 | 5.0 | 0.00 | 0.09 | 0.00 | 91 | 1019.2 |
| 20260502112604 | 48 | 293 | 3.0 | 5.0 | 0.00 | 0.09 | 0.00 | 91 | 1019.2 |
| 20260502112505 | 48 | 293 | 3.0 | 5.0 | 0.00 | 0.09 | 0.00 | 91 | 1019.2 |
| 20260502112405 | 48 | 293 | 3.0 | 5.0 | 0.00 | 0.09 | 0.00 | 91 | 1019.2 |
| 20260502112306 | 48 | 293 | 3.0 | 5.0 | 0.00 | 0.09 | 0.00 | 91 | 1019.2 |
| 20260502112205 | 48 | 293 | 3.0 | 4.0 | 0.00 | 0.09 | 0.00 | 91 | 1019.1 |
| 20260502112104 | 48 | 292 | 3.0 | 4.0 | 0.00 | 0.09 | 0.00 | 91 | 1019.1 |
| 20260502111904 | 48 | 291 | 3.0 | 4.0 | 0.00 | 0.09 | 0.00 | 91 | 1019.1 |
| 20260502111804 | 48 | 292 | 3.0 | 5.0 | 0.00 | 0.09 | 0.00 | 91 | 1019.1 |
| 20260502111604 | 48 | 292 | 3.0 | 5.0 | 0.00 | 0.09 | 0.00 | 91 | 1019.1 |
| 20260502111504 | 48 | 292 | 3.0 | 6.0 | 0.00 | 0.09 | 0.00 | 91 | 1019.0 |
| 20260502111405 | 48 | 292 | 4.0 | 6.0 | 0.00 | 0.09 | 0.00 | 91 | 1019.0 |
| 20260502111304 | 48 | 291 | 4.0 | 6.0 | 0.00 | 0.09 | 0.00 | 91 | 1019.0 |
| 20260502111205 | 48 | 292 | 4.0 | 6.0 | 0.00 | 0.09 | 0.00 | 91 | 1019.0 |
| 20260502111104 | 48 | 292 | 4.0 | 6.0 | 0.00 | 0.09 | 0.00 | 91 | 1019.0 |
| 20260502111005 | 48 | 292 | 4.0 | 6.0 | 0.00 | 0.09 | 0.00 | 91 | 1019.0 |
| 20260502110904 | 48 | 292 | 4.0 | 6.0 | 0.00 | 0.09 | 0.00 | 91 | 1018.9 |
| 20260502110805 | 48 | 291 | 4.0 | 6.0 | 0.00 | 0.09 | 0.00 | 91 | 1018.9 |
| 20260502110704 | 48 | 290 | 4.0 | 6.0 | 0.00 | 0.09 | 0.00 | 91 | 1018.8 |
| 20260502110604 | 48 | 291 | 3.0 | 6.0 | 0.00 | 0.09 | 0.00 | 91 | 1018.8 |
| 20260502110504 | 48 | 291 | 3.0 | 6.0 | 0.00 | 0.09 | 0.00 | 91 | 1018.8 |
| 20260502110404 | 48 | 292 | 3.0 | 5.0 | 0.00 | 0.09 | 0.00 | 91 | 1018.7 |
| 20260502110204 | 48 | 294 | 3.0 | 5.0 | 0.00 | 0.09 | 0.00 | 91 | 1018.7 |
| 20260502110005 | 48 | 296 | 3.0 | 5.0 | 0.00 | 0.09 | 0.00 | 91 | 1018.7 |
| 20260502105904 | 48 | 297 | 3.0 | 5.0 | 0.00 | 0.09 | 0.00 | 91 | 1018.7 |
| 20260502105805 | 48 | 298 | 3.0 | 5.0 | 0.00 | 0.09 | 0.00 | 91 | 1018.7 |
| 20260502105704 | 48 | 299 | 3.0 | 5.0 | 0.00 | 0.09 | 0.00 | 91 | 1018.7 |
| 20260502105604 | 48 | 299 | 3.0 | 5.0 | 0.00 | 0.09 | 0.00 | 91 | 1018.7 |
| 20260502105504 | 48 | 298 | 3.0 | 5.0 | 0.00 | 0.09 | 0.00 | 91 | 1018.6 |
| 20260502105405 | 48 | 298 | 3.0 | 5.0 | 0.00 | 0.09 | 0.00 | 91 | 1018.6 |
| 20260502105306 | 48 | 299 | 3.0 | 4.0 | 0.00 | 0.10 | 0.00 | 91 | 1018.6 |
| 20260502105204 | 48 | 299 | 3.0 | 4.0 | 0.00 | 0.10 | 0.00 | 91 | 1018.6 |
| 20260502105104 | 48 | 300 | 3.0 | 4.0 | 0.00 | 0.10 | 0.00 | 91 | 1018.6 |
| 20260502105004 | 48 | 300 | 3.0 | 4.0 | 0.00 | 0.10 | 0.00 | 91 | 1018.6 |
| 20260502104904 | 48 | 300 | 3.0 | 4.0 | 0.00 | 0.10 | 0.00 | 91 | 1018.6 |
| 20260502104804 | 48 | 300 | 3.0 | 4.0 | 0.00 | 0.10 | 0.00 | 91 | 1018.5 |
| 20260502104704 | 48 | 301 | 3.0 | 4.0 | 0.00 | 0.10 | 0.00 | 91 | 1018.5 |
| 20260502104604 | 48 | 301 | 3.0 | 4.0 | 0.00 | 0.10 | 0.00 | 91 | 1018.5 |
| 20260502104504 | 48 | 301 | 3.0 | 4.0 | 0.00 | 0.10 | 0.00 | 91 | 1018.5 |
| 20260502104405 | 48 | 302 | 3.0 | 4.0 | 0.00 | 0.10 | 0.00 | 91 | 1018.4 |
| 20260502104304 | 48 | 303 | 3.0 | 4.0 | 0.00 | 0.10 | 0.00 | 91 | 1018.4 |
| 20260502104205 | 48 | 305 | 2.0 | 4.0 | 0.00 | 0.10 | 0.00 | 91 | 1018.3 |
| 20260502104104 | 48 | 306 | 3.0 | 4.0 | 0.00 | 0.10 | 0.00 | 91 | 1018.3 |
| 20260502104004 | 48 | 307 | 3.0 | 4.0 | 0.00 | 0.10 | 0.00 | 91 | 1018.3 |
| 20260502103804 | 48 | 309 | 3.0 | 4.0 | 0.00 | 0.10 | 0.00 | 91 | 1018.3 |
| 20260502103604 | 48 | 312 | 3.0 | 4.0 | 0.00 | 0.10 | 0.00 | 91 | 1018.3 |
| 20260502103504 | 48 | 314 | 3.0 | 4.0 | 0.00 | 0.10 | 0.00 | 91 | 1018.3 |
| 20260502103404 | 48 | 314 | 3.0 | 4.0 | 0.00 | 0.10 | 0.00 | 91 | 1018.2 |
| 20260502103304 | 48 | 314 | 3.0 | 4.0 | 0.00 | 0.10 | 0.00 | 91 | 1018.3 |
| 20260502103104 | 48 | 313 | 3.0 | 4.0 | 0.00 | 0.10 | 0.00 | 91 | 1018.2 |
| 20260502103004 | 48 | 314 | 3.0 | 4.0 | 0.00 | 0.10 | 0.00 | 91 | 1018.2 |
| 20260502102904 | 48 | 314 | 3.0 | 4.0 | 0.00 | 0.10 | 0.00 | 91 | 1018.2 |
| 20260502102804 | 48 | 314 | 3.0 | 4.0 | 0.00 | 0.10 | 0.00 | 91 | 1018.1 |
| 20260502102704 | 48 | 313 | 3.0 | 4.0 | 0.00 | 0.10 | 0.00 | 91 | 1018.2 |
| 20260502102504 | 48 | 313 | 3.0 | 4.0 | 0.00 | 0.10 | 0.00 | 91 | 1018.1 |
| 20260502102404 | 48 | 313 | 3.0 | 4.0 | 0.00 | 0.10 | 0.00 | 91 | 1018.1 |
| 20260502102306 | 48 | 314 | 3.0 | 4.0 | 0.00 | 0.10 | 0.00 | 91 | 1018.0 |
| 20260502102204 | 48 | 315 | 3.0 | 4.0 | 0.00 | 0.10 | 0.00 | 91 | 1018.0 |
| 20260502102104 | 48 | 315 | 3.0 | 4.0 | 0.00 | 0.10 | 0.00 | 91 | 1018.1 |
| 20260502102004 | 48 | 315 | 3.0 | 4.0 | 0.00 | 0.10 | 0.00 | 91 | 1018.0 |
| 20260502101904 | 48 | 315 | 3.0 | 4.0 | 0.00 | 0.10 | 0.00 | 91 | 1018.0 |
| 20260502101804 | 48 | 313 | 3.0 | 4.0 | 0.00 | 0.10 | 0.00 | 91 | 1018.0 |
| 20260502101704 | 48 | 311 | 3.0 | 4.0 | 0.00 | 0.10 | 0.00 | 91 | 1018.0 |
| 20260502101504 | 48 | 307 | 3.0 | 4.0 | 0.00 | 0.10 | 0.00 | 90 | 1018.0 |
| 20260502101404 | 48 | 305 | 3.0 | 4.0 | 0.00 | 0.10 | 0.00 | 90 | 1018.0 |
| 20260502101304 | 48 | 302 | 3.0 | 4.0 | 0.00 | 0.10 | 0.00 | 90 | 1018.1 |
| 20260502101204 | 48 | 300 | 3.0 | 4.0 | 0.00 | 0.10 | 0.00 | 90 | 1018.0 |
| 20260502101104 | 48 | 297 | 3.0 | 4.0 | 0.00 | 0.10 | 0.00 | 90 | 1018.0 |
| 20260502101004 | 48 | 295 | 3.0 | 4.0 | 0.00 | 0.10 | 0.00 | 90 | 1018.0 |
| 20260502100805 | 49 | 294 | 3.0 | 5.0 | 0.00 | 0.11 | 0.00 | 90 | 1018.0 |
| 20260502100704 | 49 | 294 | 3.0 | 5.0 | 0.00 | 0.11 | 0.00 | 90 | 1018.0 |
| 20260502100604 | 49 | 295 | 3.0 | 5.0 | 0.00 | 0.11 | 0.00 | 90 | 1018.0 |
| 20260502100504 | 49 | 296 | 3.0 | 5.0 | 0.00 | 0.11 | 0.00 | 90 | 1018.0 |
| 20260502100404 | 49 | 297 | 3.0 | 5.0 | 0.00 | 0.11 | 0.00 | 90 | 1018.0 |
| 20260502100304 | 49 | 297 | 3.0 | 5.0 | 0.00 | 0.11 | 0.00 | 90 | 1018.0 |
| 20260502100204 | 49 | 297 | 3.0 | 5.0 | 0.00 | 0.11 | 0.00 | 90 | 1018.0 |
| 20260502100105 | 49 | 297 | 3.0 | 5.0 | 0.00 | 0.11 | 0.00 | 90 | 1018.0 |
| 20260502091503 | 50 | 328 | 3.0 | 7.0 | 0.00 | 0.12 | 0.00 | 89 | 1018.1 |
| 20260502091004 | 50 | 324 | 4.0 | 7.0 | 0.00 | 0.12 | 0.00 | 89 | 1018.1 |
| 20260502090904 | 50 | 322 | 4.0 | 7.0 | 0.00 | 0.12 | 0.00 | 89 | 1018.1 |
| 20260502090804 | 50 | 321 | 4.0 | 7.0 | 0.00 | 0.12 | 0.00 | 89 | 1018.1 |
| 20260502090605 | 50 | 318 | 4.0 | 8.0 | 0.00 | 0.12 | 0.00 | 89 | 1018.2 |
| 20260502090504 | 50 | 317 | 4.0 | 8.0 | 0.00 | 0.12 | 0.00 | 89 | 1018.1 |
| 20260502090405 | 50 | 316 | 4.0 | 8.0 | 0.00 | 0.12 | 0.00 | 89 | 1018.2 |
| 20260502090304 | 50 | 314 | 4.0 | 8.0 | 0.00 | 0.12 | 0.00 | 89 | 1018.2 |
| 20260502080103 | 50 | 330 | 3.0 | 7.0 | 0.00 | 0.14 | 0.00 | 87 | 1017.7 |
| 20260502071504 | 51 | 326 | 4.0 | 8.0 | 0.00 | 0.15 | 0.00 | 87 | 1018.0 |
| 20260502071404 | 51 | 327 | 4.0 | 8.0 | 0.00 | 0.15 | 0.00 | 87 | 1017.9 |
| 20260502071304 | 51 | 329 | 3.0 | 8.0 | 0.00 | 0.15 | 0.00 | 87 | 1017.9 |
| 20260502071205 | 51 | 329 | 3.0 | 8.0 | 0.00 | 0.15 | 0.00 | 87 | 1017.9 |
| 20260502071103 | 51 | 331 | 3.0 | 8.0 | 0.00 | 0.15 | 0.00 | 87 | 1017.9 |
| 20260502071004 | 51 | 333 | 3.0 | 8.0 | 0.00 | 0.15 | 0.00 | 87 | 1017.9 |
| 20260502070903 | 51 | 334 | 3.0 | 8.0 | 0.00 | 0.15 | 0.00 | 87 | 1017.9 |
| 20260502070805 | 51 | 337 | 3.0 | 8.0 | 0.00 | 0.15 | 0.00 | 87 | 1017.9 |
| 20260502070704 | 51 | 341 | 3.0 | 6.0 | 0.00 | 0.15 | 0.00 | 87 | 1017.9 |
| 20260502070504 | 51 | 347 | 2.0 | 6.0 | 0.00 | 0.15 | 0.00 | 87 | 1017.8 |
| 20260502070404 | 51 | 350 | 2.0 | 5.0 | 0.00 | 0.15 | 0.00 | 87 | 1017.8 |
| 20260502070304 | 51 | 351 | 2.0 | 5.0 | 0.00 | 0.15 | 0.00 | 86 | 1017.8 |
| 20260502070204 | 51 | 351 | 3.0 | 5.0 | 0.00 | 0.15 | 0.00 | 86 | 1017.8 |
| 20260502070004 | 51 | 352 | 3.0 | 7.0 | 0.00 | 0.15 | 0.00 | 87 | 1017.8 |
| 20260502065804 | 51 | 352 | 3.0 | 7.0 | 0.00 | 0.15 | 0.00 | 86 | 1017.9 |
| 20260502065703 | 51 | 351 | 3.0 | 7.0 | 0.00 | 0.15 | 0.00 | 86 | 1017.9 |
| 20260502065604 | 51 | 352 | 3.0 | 7.0 | 0.00 | 0.15 | 0.00 | 86 | 1017.9 |
| 20260502065504 | 51 | 351 | 3.0 | 7.0 | 0.00 | 0.15 | 0.00 | 86 | 1017.9 |
| 20260502065306 | 51 | 349 | 3.0 | 7.0 | 0.00 | 0.15 | 0.00 | 86 | 1017.9 |
| 20260502065204 | 51 | 350 | 3.0 | 7.0 | 0.00 | 0.15 | 0.00 | 86 | 1017.9 |
| 20260502065104 | 51 | 350 | 3.0 | 7.0 | 0.00 | 0.15 | 0.00 | 86 | 1017.9 |
| 20260502065004 | 51 | 351 | 3.0 | 7.0 | 0.00 | 0.15 | 0.00 | 86 | 1017.9 |
| 20260502064904 | 51 | 351 | 3.0 | 7.0 | 0.00 | 0.15 | 0.00 | 86 | 1017.9 |
| 20260502064804 | 51 | 352 | 3.0 | 7.0 | 0.00 | 0.15 | 0.00 | 86 | 1017.9 |
| 20260502064704 | 51 | 352 | 3.0 | 7.0 | 0.00 | 0.15 | 0.00 | 86 | 1017.8 |
| 20260502064603 | 51 | 351 | 3.0 | 7.0 | 0.00 | 0.15 | 0.00 | 86 | 1017.8 |
| 20260502064504 | 51 | 352 | 3.0 | 7.0 | 0.00 | 0.15 | 0.00 | 86 | 1017.8 |
| 20260502064304 | 51 | 353 | 3.0 | 7.0 | 0.00 | 0.15 | 0.00 | 86 | 1017.8 |
| 20260502064204 | 51 | 354 | 3.0 | 7.0 | 0.00 | 0.15 | 0.00 | 86 | 1017.8 |
| 20260502064104 | 51 | 355 | 3.0 | 5.0 | 0.00 | 0.15 | 0.00 | 86 | 1017.8 |
| 20260502064004 | 51 | 356 | 3.0 | 7.0 | 0.00 | 0.15 | 0.00 | 86 | 1017.8 |
| 20260502063804 | 51 | 355 | 3.0 | 7.0 | 0.00 | 0.15 | 0.00 | 86 | 1017.8 |
| 20260502063604 | 51 | 357 | 3.0 | 7.0 | 0.00 | 0.15 | 0.00 | 86 | 1017.8 |
| 20260502063504 | 51 | 358 | 3.0 | 7.0 | 0.00 | 0.15 | 0.00 | 86 | 1017.8 |
| 20260502063403 | 51 | 359 | 3.0 | 7.0 | 0.00 | 0.15 | 0.00 | 86 | 1017.8 |
| 20260502063304 | 51 | 359 | 3.0 | 7.0 | 0.00 | 0.15 | 0.00 | 86 | 1017.8 |
| 20260502063203 | 51 | 358 | 3.0 | 7.0 | 0.00 | 0.15 | 0.00 | 86 | 1017.8 |
| 20260502063104 | 51 | 354 | 3.0 | 7.0 | 0.00 | 0.15 | 0.00 | 87 | 1017.8 |
| 20260502062804 | 51 | 348 | 3.0 | 7.0 | 0.00 | 0.15 | 0.00 | 87 | 1017.8 |
| 20260502062703 | 51 | 347 | 3.0 | 7.0 | 0.00 | 0.15 | 0.00 | 87 | 1017.8 |
| 20260502062604 | 51 | 345 | 3.0 | 7.0 | 0.00 | 0.15 | 0.00 | 87 | 1017.8 |
| 20260502062503 | 51 | 343 | 3.0 | 7.0 | 0.00 | 0.15 | 0.00 | 87 | 1017.9 |
| 20260502062306 | 51 | 338 | 3.0 | 7.0 | 0.00 | 0.15 | 0.00 | 87 | 1017.9 |
| 20260502061903 | 51 | 336 | 3.0 | 6.0 | 0.00 | 0.15 | 0.00 | 87 | 1017.9 |
| 20260502061804 | 51 | 336 | 3.0 | 6.0 | 0.00 | 0.15 | 0.00 | 87 | 1017.9 |
| 20260502061703 | 51 | 335 | 3.0 | 6.0 | 0.00 | 0.15 | 0.00 | 87 | 1017.9 |
| 20260502061604 | 51 | 336 | 3.0 | 5.0 | 0.00 | 0.15 | 0.00 | 87 | 1018.0 |
| 20260502061404 | 51 | 337 | 3.0 | 5.0 | 0.00 | 0.15 | 0.00 | 87 | 1018.0 |
| 20260502061304 | 51 | 339 | 3.0 | 5.0 | 0.00 | 0.15 | 0.00 | 87 | 1017.9 |
| 20260502061203 | 51 | 339 | 3.0 | 5.0 | 0.00 | 0.15 | 0.00 | 87 | 1018.0 |
| 20260502061104 | 51 | 340 | 3.0 | 5.0 | 0.00 | 0.15 | 0.00 | 87 | 1018.0 |
| 20260502061004 | 51 | 341 | 3.0 | 5.0 | 0.00 | 0.15 | 0.00 | 87 | 1018.0 |
| 20260502060604 | 52 | 342 | 2.0 | 4.0 | 0.00 | 0.16 | 0.00 | 87 | 1017.9 |
| 20260502060404 | 52 | 344 | 2.0 | 4.0 | 0.00 | 0.16 | 0.00 | 86 | 1017.9 |
| 20260502060304 | 52 | 345 | 2.0 | 4.0 | 0.00 | 0.16 | 0.00 | 86 | 1018.0 |
| 20260502060204 | 52 | 346 | 2.0 | 4.0 | 0.00 | 0.16 | 0.00 | 86 | 1018.0 |
| 20260502060104 | 52 | 348 | 2.0 | 4.0 | 0.00 | 0.16 | 0.00 | 86 | 1018.0 |
| 20260502060004 | 52 | 349 | 2.0 | 4.0 | 0.00 | 0.16 | 0.00 | 86 | 1018.0 |
| 20260502055904 | 52 | 350 | 2.0 | 4.0 | 0.00 | 0.16 | 0.00 | 86 | 1018.0 |
| 20260502055804 | 52 | 349 | 2.0 | 4.0 | 0.00 | 0.16 | 0.00 | 86 | 1018.0 |
| 20260502055704 | 52 | 348 | 2.0 | 4.0 | 0.00 | 0.16 | 0.00 | 86 | 1018.0 |
| 20260502055503 | 52 | 349 | 2.0 | 4.0 | 0.00 | 0.16 | 0.00 | 86 | 1018.0 |
| 20260502055404 | 52 | 350 | 2.0 | 4.0 | 0.00 | 0.16 | 0.00 | 86 | 1018.0 |
| 20260502055305 | 52 | 352 | 2.0 | 4.0 | 0.00 | 0.16 | 0.00 | 86 | 1018.0 |
| 20260502055204 | 52 | 353 | 2.0 | 4.0 | 0.00 | 0.16 | 0.00 | 86 | 1017.9 |
| 20260502055103 | 52 | 355 | 2.0 | 4.0 | 0.00 | 0.16 | 0.00 | 86 | 1018.0 |
| 20260502055004 | 52 | 356 | 2.0 | 4.0 | 0.00 | 0.16 | 0.00 | 86 | 1018.0 |
| 20260502054903 | 52 | 358 | 2.0 | 4.0 | 0.00 | 0.16 | 0.00 | 86 | 1017.9 |
| 20260502054804 | 52 | 2 | 2.0 | 4.0 | 0.00 | 0.16 | 0.00 | 86 | 1017.9 |
| 20260502054604 | 52 | 7 | 2.0 | 5.0 | 0.00 | 0.17 | 0.00 | 86 | 1017.9 |
| 20260502054504 | 52 | 8 | 2.0 | 5.0 | 0.00 | 0.17 | 0.00 | 86 | 1017.9 |
| 20260502054304 | 52 | 9 | 2.0 | 5.0 | 0.00 | 0.17 | 0.00 | 86 | 1017.8 |
| 20260502054204 | 52 | 9 | 2.0 | 5.0 | 0.00 | 0.17 | 0.00 | 86 | 1017.9 |
| 20260502054104 | 52 | 10 | 2.0 | 5.0 | 0.00 | 0.17 | 0.00 | 86 | 1017.9 |
| 20260502054004 | 52 | 11 | 2.0 | 5.0 | 0.00 | 0.17 | 0.00 | 86 | 1017.8 |
| 20260502053904 | 52 | 12 | 2.0 | 5.0 | 0.00 | 0.17 | 0.00 | 86 | 1017.8 |
| 20260502053804 | 52 | 13 | 2.0 | 5.0 | 0.00 | 0.17 | 0.00 | 86 | 1017.8 |
| 20260502053504 | 52 | 19 | 2.0 | 4.0 | 0.00 | 0.17 | 0.00 | 86 | 1017.8 |
| 20260502053405 | 52 | 20 | 2.0 | 4.0 | 0.00 | 0.17 | 0.00 | 86 | 1017.8 |
| 20260502053303 | 52 | 23 | 2.0 | 4.0 | 0.00 | 0.17 | 0.00 | 86 | 1017.8 |
| 20260502053204 | 52 | 23 | 2.0 | 4.0 | 0.00 | 0.17 | 0.00 | 86 | 1017.8 |
| 20260502053103 | 52 | 21 | 2.0 | 7.0 | 0.00 | 0.17 | 0.00 | 86 | 1017.8 |
| 20260502053004 | 52 | 19 | 2.0 | 7.0 | 0.00 | 0.17 | 0.00 | 86 | 1017.7 |
| 20260502052804 | 52 | 18 | 2.0 | 7.0 | 0.00 | 0.18 | 0.00 | 86 | 1017.7 |
| 20260502052704 | 52 | 18 | 2.0 | 7.0 | 0.00 | 0.18 | 0.00 | 86 | 1017.7 |
| 20260502052604 | 52 | 16 | 2.0 | 7.0 | 0.00 | 0.18 | 0.00 | 86 | 1017.7 |
| 20260502052504 | 52 | 12 | 2.0 | 7.0 | 0.00 | 0.18 | 0.00 | 86 | 1017.7 |
| 20260502052404 | 52 | 10 | 2.0 | 7.0 | 0.00 | 0.18 | 0.00 | 86 | 1017.8 |
| 20260502052306 | 53 | 6 | 2.0 | 7.0 | 0.00 | 0.18 | 0.00 | 86 | 1017.7 |
| 20260502052204 | 53 | 6 | 2.0 | 7.0 | 0.00 | 0.18 | 0.00 | 86 | 1017.7 |
| 20260502052004 | 53 | 6 | 3.0 | 4.0 | 0.00 | 0.18 | 0.00 | 86 | 1017.8 |
| 20260502051904 | 53 | 5 | 3.0 | 8.0 | 0.00 | 0.18 | 0.00 | 86 | 1017.8 |
| 20260502051704 | 53 | 3 | 3.0 | 8.0 | 0.00 | 0.18 | 0.00 | 86 | 1017.8 |
| 20260502051504 | 53 | 3 | 3.0 | 8.0 | 0.00 | 0.18 | 0.00 | 86 | 1017.7 |
| 20260502051404 | 53 | 2 | 3.0 | 8.0 | 0.00 | 0.18 | 0.00 | 86 | 1017.7 |
| 20260502051304 | 53 | 1 | 3.0 | 11.0 | 0.00 | 0.18 | 0.00 | 86 | 1017.7 |
| 20260502051104 | 53 | 2 | 4.0 | 11.0 | 0.00 | 0.18 | 0.00 | 86 | 1017.7 |
| 20260502051004 | 53 | 1 | 4.0 | 11.0 | 0.00 | 0.18 | 0.00 | 86 | 1017.7 |
| 20260502050804 | 53 | 358 | 4.0 | 11.0 | 0.00 | 0.18 | 0.00 | 86 | 1017.7 |
| 20260502050704 | 53 | 359 | 4.0 | 11.0 | 0.00 | 0.18 | 0.00 | 86 | 1017.7 |
| 20260502050604 | 53 | 359 | 4.0 | 11.0 | 0.00 | 0.18 | 0.00 | 86 | 1017.7 |
| 20260502050504 | 53 | 358 | 4.0 | 11.0 | 0.00 | 0.18 | 0.00 | 86 | 1017.7 |
| 20260502050404 | 53 | 358 | 3.0 | 11.0 | 0.00 | 0.18 | 0.00 | 86 | 1017.7 |
| 20260502050303 | 53 | 358 | 3.0 | 8.0 | 0.00 | 0.18 | 0.00 | 86 | 1017.7 |
| 20260502050204 | 53 | 357 | 3.0 | 8.0 | 0.00 | 0.18 | 0.00 | 86 | 1017.6 |
| 20260502050005 | 53 | 359 | 3.0 | 7.0 | 0.00 | 0.18 | 0.00 | 87 | 1017.7 |
| 20260502045904 | 53 | 358 | 3.0 | 7.0 | 0.00 | 0.18 | 0.18 | 87 | 1017.7 |
| 20260502045803 | 53 | 359 | 3.0 | 6.0 | 0.00 | 0.18 | 0.18 | 87 | 1017.7 |
| 20260502045704 | 53 | 358 | 3.0 | 6.0 | 0.00 | 0.18 | 0.18 | 87 | 1017.7 |
| 20260502045604 | 53 | 358 | 3.0 | 6.0 | 0.00 | 0.18 | 0.18 | 87 | 1017.7 |
| 20260502045504 | 53 | 358 | 3.0 | 6.0 | 0.00 | 0.18 | 0.18 | 87 | 1017.7 |
| 20260502045404 | 53 | 357 | 3.0 | 6.0 | 0.00 | 0.18 | 0.18 | 87 | 1017.6 |
| 20260502045306 | 53 | 359 | 3.0 | 6.0 | 0.00 | 0.18 | 0.18 | 87 | 1017.6 |
| 20260502045104 | 53 | 358 | 3.0 | 6.0 | 0.00 | 0.18 | 0.18 | 87 | 1017.6 |
| 20260502044904 | 53 | 357 | 3.0 | 6.0 | 0.00 | 0.18 | 0.18 | 87 | 1017.6 |
| 20260502044804 | 53 | 358 | 3.0 | 6.0 | 0.00 | 0.18 | 0.18 | 87 | 1017.6 |
| 20260502044704 | 53 | 357 | 3.0 | 6.0 | 0.00 | 0.18 | 0.18 | 87 | 1017.6 |
| 20260502044504 | 53 | 356 | 3.0 | 6.0 | 0.00 | 0.18 | 0.18 | 87 | 1017.6 |
| 20260502044404 | 53 | 356 | 2.0 | 5.0 | 0.00 | 0.18 | 0.18 | 87 | 1017.6 |
| 20260502044104 | 53 | 358 | 2.0 | 4.0 | 0.00 | 0.18 | 0.18 | 87 | 1017.6 |
| 20260502044004 | 53 | 357 | 2.0 | 4.0 | 0.00 | 0.18 | 0.18 | 87 | 1017.6 |
| 20260502043804 | 53 | 355 | 2.0 | 4.0 | 0.00 | 0.18 | 0.18 | 86 | 1017.5 |
| 20260502043503 | 53 | 353 | 2.0 | 4.0 | 0.00 | 0.18 | 0.18 | 87 | 1017.5 |
| 20260502043204 | 53 | 352 | 2.0 | 4.0 | 0.00 | 0.18 | 0.18 | 86 | 1017.5 |
| 20260502043104 | 53 | 349 | 2.0 | 4.0 | 0.00 | 0.18 | 0.18 | 86 | 1017.5 |
| 20260502043004 | 53 | 348 | 2.0 | 4.0 | 0.00 | 0.18 | 0.18 | 86 | 1017.5 |
| 20260502042903 | 53 | 349 | 2.0 | 4.0 | 0.00 | 0.18 | 0.18 | 86 | 1017.6 |
| 20260502042804 | 54 | 349 | 2.0 | 4.0 | 0.00 | 0.18 | 0.18 | 86 | 1017.6 |
| 20260502042703 | 54 | 350 | 2.0 | 4.0 | 0.00 | 0.18 | 0.18 | 86 | 1017.6 |
| 20260502042604 | 54 | 350 | 2.0 | 4.0 | 0.00 | 0.18 | 0.18 | 86 | 1017.7 |
| 20260502042503 | 54 | 350 | 2.0 | 4.0 | 0.00 | 0.18 | 0.18 | 86 | 1017.6 |
| 20260502042404 | 54 | 350 | 2.0 | 4.0 | 0.00 | 0.18 | 0.18 | 86 | 1017.6 |
| 20260502042306 | 54 | 349 | 2.0 | 4.0 | 0.00 | 0.18 | 0.18 | 86 | 1017.6 |
| 20260502042204 | 54 | 349 | 2.0 | 5.0 | 0.00 | 0.18 | 0.18 | 86 | 1017.6 |
| 20260502042104 | 54 | 349 | 2.0 | 5.0 | 0.00 | 0.18 | 0.18 | 86 | 1017.6 |
| 20260502042004 | 54 | 350 | 2.0 | 5.0 | 0.00 | 0.18 | 0.18 | 86 | 1017.6 |
| 20260502041904 | 54 | 349 | 3.0 | 5.0 | 0.00 | 0.18 | 0.18 | 86 | 1017.6 |
| 20260502041804 | 54 | 349 | 3.0 | 5.0 | 0.00 | 0.18 | 0.18 | 86 | 1017.6 |
| 20260502041704 | 54 | 349 | 3.0 | 5.0 | 0.00 | 0.18 | 0.18 | 86 | 1017.6 |
| 20260502041405 | 54 | 350 | 2.0 | 5.0 | 0.00 | 0.18 | 0.18 | 85 | 1017.6 |
| 20260502041303 | 54 | 350 | 2.0 | 5.0 | 0.00 | 0.18 | 0.18 | 85 | 1017.6 |
| 20260502041103 | 54 | 350 | 2.0 | 5.0 | 0.00 | 0.18 | 0.18 | 85 | 1017.7 |
| 20260502041004 | 54 | 350 | 2.0 | 5.0 | 0.00 | 0.18 | 0.18 | 85 | 1017.6 |
| 20260502040903 | 54 | 351 | 2.0 | 5.0 | 0.00 | 0.18 | 0.18 | 85 | 1017.6 |
| 20260502040804 | 54 | 351 | 2.0 | 4.0 | 0.00 | 0.18 | 0.18 | 85 | 1017.6 |
| 20260502040703 | 54 | 351 | 2.0 | 4.0 | 0.00 | 0.18 | 0.18 | 85 | 1017.6 |
| 20260502040503 | 54 | 351 | 2.0 | 4.0 | 0.00 | 0.18 | 0.18 | 85 | 1017.5 |
| 20260502040404 | 54 | 351 | 2.0 | 4.0 | 0.00 | 0.18 | 0.18 | 85 | 1017.5 |
| 20260502040303 | 54 | 352 | 2.0 | 4.0 | 0.00 | 0.18 | 0.18 | 85 | 1017.5 |
| 20260502040204 | 55 | 354 | 2.0 | 4.0 | 0.00 | 0.18 | 0.18 | 84 | 1017.6 |
| 20260502040104 | 55 | 357 | 2.0 | 4.0 | 0.00 | 0.18 | 0.18 | 84 | 1017.6 |
| 20260502040004 | 55 | 1 | 2.0 | 4.0 | 0.00 | 0.18 | 0.18 | 84 | 1017.6 |
| 20260502035903 | 55 | 3 | 2.0 | 4.0 | 0.00 | 0.18 | 0.18 | 84 | 1017.6 |
| 20260502035804 | 55 | 5 | 2.0 | 4.0 | 0.00 | 0.18 | 0.18 | 84 | 1017.5 |
| 20260502035703 | 55 | 6 | 2.0 | 5.0 | 0.00 | 0.18 | 0.18 | 84 | 1017.5 |
| 20260502035604 | 55 | 8 | 2.0 | 5.0 | 0.00 | 0.18 | 0.18 | 84 | 1017.5 |
| 20260502035404 | 55 | 10 | 2.0 | 5.0 | 0.00 | 0.18 | 0.18 | 84 | 1017.4 |
| 20260502035306 | 55 | 10 | 2.0 | 5.0 | 0.00 | 0.18 | 0.18 | 84 | 1017.5 |
| 20260502035204 | 55 | 7 | 2.0 | 5.0 | 0.00 | 0.18 | 0.18 | 84 | 1017.5 |
| 20260502035103 | 55 | 4 | 2.0 | 6.0 | 0.00 | 0.18 | 0.18 | 84 | 1017.5 |
| 20260502035004 | 55 | 1 | 2.0 | 6.0 | 0.00 | 0.18 | 0.18 | 84 | 1017.5 |
| 20260502034903 | 55 | 359 | 2.0 | 6.0 | 0.00 | 0.18 | 0.18 | 84 | 1017.5 |
| 20260502034804 | 55 | 358 | 2.0 | 6.0 | 0.00 | 0.18 | 0.18 | 84 | 1017.5 |
| 20260502034703 | 55 | 357 | 2.0 | 6.0 | 0.00 | 0.18 | 0.18 | 84 | 1017.5 |
| 20260502034503 | 55 | 355 | 2.0 | 6.0 | 0.00 | 0.18 | 0.18 | 84 | 1017.5 |
| 20260502034404 | 55 | 355 | 2.0 | 6.0 | 0.00 | 0.18 | 0.18 | 84 | 1017.5 |
| 20260502034304 | 55 | 357 | 2.0 | 6.0 | 0.00 | 0.18 | 0.18 | 84 | 1017.5 |
| 20260502034204 | 55 | 357 | 2.0 | 6.0 | 0.00 | 0.18 | 0.18 | 84 | 1017.5 |
| 20260502034103 | 55 | 357 | 3.0 | 5.0 | 0.00 | 0.18 | 0.18 | 84 | 1017.6 |
| 20260502034004 | 55 | 356 | 3.0 | 5.0 | 0.00 | 0.18 | 0.18 | 84 | 1017.6 |
| 20260502033903 | 55 | 356 | 3.0 | 5.0 | 0.00 | 0.18 | 0.18 | 84 | 1017.6 |
| 20260502033804 | 55 | 355 | 3.0 | 5.0 | 0.00 | 0.18 | 0.18 | 84 | 1017.6 |
| 20260502033603 | 55 | 353 | 3.0 | 5.0 | 0.00 | 0.18 | 0.18 | 83 | 1017.6 |
| 20260502033504 | 55 | 351 | 3.0 | 6.0 | 0.00 | 0.18 | 0.18 | 83 | 1017.5 |
| 20260502033404 | 55 | 352 | 3.0 | 6.0 | 0.00 | 0.18 | 0.18 | 83 | 1017.5 |
| 20260502033203 | 55 | 352 | 3.0 | 6.0 | 0.00 | 0.18 | 0.18 | 84 | 1017.5 |
| 20260502033104 | 55 | 354 | 3.0 | 6.0 | 0.00 | 0.18 | 0.18 | 84 | 1017.5 |
| 20260502032905 | 55 | 352 | 3.0 | 6.0 | 0.00 | 0.18 | 0.18 | 84 | 1017.5 |
| 20260502032703 | 55 | 352 | 3.0 | 6.0 | 0.00 | 0.18 | 0.18 | 84 | 1017.5 |
| 20260502032605 | 55 | 353 | 3.0 | 6.0 | 0.00 | 0.18 | 0.18 | 84 | 1017.5 |
| 20260502032503 | 55 | 351 | 3.0 | 6.0 | 0.00 | 0.18 | 0.18 | 84 | 1017.5 |
| 20260502032404 | 55 | 349 | 3.0 | 6.0 | 0.00 | 0.18 | 0.18 | 84 | 1017.4 |
| 20260502032305 | 55 | 347 | 3.0 | 6.0 | 0.00 | 0.18 | 0.18 | 84 | 1017.5 |
| 20260502032204 | 55 | 344 | 3.0 | 6.0 | 0.00 | 0.18 | 0.18 | 84 | 1017.5 |
| 20260502032103 | 55 | 342 | 3.0 | 6.0 | 0.00 | 0.18 | 0.18 | 84 | 1017.4 |
| 20260502032004 | 55 | 343 | 3.0 | 6.0 | 0.00 | 0.18 | 0.18 | 85 | 1017.5 |
| 20260502031903 | 55 | 343 | 3.0 | 6.0 | 0.00 | 0.18 | 0.18 | 85 | 1017.5 |
| 20260502031703 | 55 | 344 | 3.0 | 6.0 | 0.00 | 0.18 | 0.18 | 85 | 1017.5 |
| 20260502031504 | 55 | 348 | 2.0 | 5.0 | 0.00 | 0.18 | 0.18 | 85 | 1017.5 |
| 20260502031404 | 55 | 349 | 2.0 | 5.0 | 0.00 | 0.18 | 0.18 | 85 | 1017.5 |
| 20260502031305 | 55 | 350 | 2.0 | 5.0 | 0.00 | 0.18 | 0.18 | 85 | 1017.5 |
| 20260502031204 | 55 | 351 | 2.0 | 6.0 | 0.00 | 0.18 | 0.18 | 85 | 1017.5 |
| 20260502031106 | 55 | 351 | 2.0 | 6.0 | 0.00 | 0.18 | 0.18 | 84 | 1017.4 |
| 20260502031005 | 55 | 353 | 3.0 | 6.0 | 0.00 | 0.18 | 0.18 | 84 | 1017.4 |
| 20260502030905 | 55 | 352 | 3.0 | 6.0 | 0.00 | 0.18 | 0.18 | 84 | 1017.4 |
| 20260502030805 | 55 | 353 | 3.0 | 6.0 | 0.00 | 0.18 | 0.18 | 84 | 1017.3 |
| 20260502030704 | 55 | 354 | 3.0 | 6.0 | 0.00 | 0.18 | 0.18 | 84 | 1017.3 |
| 20260502030606 | 55 | 354 | 3.0 | 7.0 | 0.00 | 0.18 | 0.18 | 84 | 1017.3 |
| 20260502030504 | 55 | 354 | 3.0 | 7.0 | 0.00 | 0.18 | 0.18 | 84 | 1017.3 |
| 20260502030405 | 55 | 355 | 3.0 | 7.0 | 0.00 | 0.18 | 0.18 | 84 | 1017.3 |
| 20260502030205 | 55 | 359 | 3.0 | 7.0 | 0.00 | 0.18 | 0.18 | 84 | 1017.3 |
| 20260502030105 | 55 | 3 | 3.0 | 8.0 | 0.00 | 0.18 | 0.18 | 84 | 1017.3 |
| 20260502030005 | 55 | 4 | 3.0 | 8.0 | 0.00 | 0.18 | 0.18 | 84 | 1017.2 |
| 20260502025904 | 55 | 5 | 3.0 | 8.0 | 0.00 | 0.18 | 0.18 | 84 | 1017.2 |
| 20260502025705 | 55 | 6 | 3.0 | 8.0 | 0.00 | 0.18 | 0.18 | 84 | 1017.2 |
| 20260502025604 | 55 | 7 | 3.0 | 8.0 | 0.00 | 0.18 | 0.18 | 84 | 1017.2 |
| 20260502025505 | 55 | 9 | 3.0 | 8.0 | 0.00 | 0.18 | 0.18 | 84 | 1017.1 |
| 20260502025405 | 55 | 11 | 3.0 | 8.0 | 0.00 | 0.18 | 0.18 | 84 | 1017.1 |
| 20260502025205 | 55 | 9 | 3.0 | 8.0 | 0.00 | 0.18 | 0.18 | 84 | 1017.0 |
| 20260502025104 | 55 | 8 | 3.0 | 7.0 | 0.00 | 0.18 | 0.18 | 84 | 1017.0 |
| 20260502025005 | 55 | 10 | 3.0 | 7.0 | 0.00 | 0.18 | 0.18 | 84 | 1016.9 |
| 20260502024904 | 55 | 9 | 3.0 | 8.0 | 0.00 | 0.18 | 0.18 | 84 | 1016.9 |
| 20260502024805 | 55 | 10 | 3.0 | 8.0 | 0.00 | 0.18 | 0.18 | 84 | 1016.9 |
| 20260502024505 | 55 | 9 | 4.0 | 9.0 | 0.00 | 0.18 | 0.18 | 84 | 1016.9 |
| 20260502024405 | 55 | 7 | 4.0 | 9.0 | 0.00 | 0.18 | 0.18 | 84 | 1016.9 |
| 20260502024304 | 55 | 7 | 4.0 | 9.0 | 0.00 | 0.18 | 0.18 | 84 | 1016.9 |
| 20260502024205 | 56 | 8 | 4.0 | 9.0 | 0.00 | 0.18 | 0.18 | 84 | 1016.9 |
| 20260502024104 | 55 | 9 | 4.0 | 9.0 | 0.00 | 0.18 | 0.18 | 84 | 1016.9 |
| 20260502024005 | 55 | 7 | 4.0 | 9.0 | 0.00 | 0.18 | 0.18 | 84 | 1016.9 |
| 20260502023905 | 55 | 7 | 4.0 | 9.0 | 0.00 | 0.18 | 0.18 | 84 | 1016.9 |
| 20260502023804 | 55 | 7 | 3.0 | 9.0 | 0.00 | 0.18 | 0.18 | 84 | 1016.9 |
| 20260502023705 | 55 | 8 | 3.0 | 9.0 | 0.00 | 0.18 | 0.18 | 83 | 1016.9 |
| 20260502023505 | 55 | 9 | 3.0 | 9.0 | 0.00 | 0.18 | 0.18 | 84 | 1016.9 |
| 20260502023405 | 55 | 10 | 3.0 | 8.0 | 0.00 | 0.18 | 0.18 | 84 | 1016.9 |
| 20260502023305 | 55 | 11 | 3.0 | 8.0 | 0.00 | 0.18 | 0.18 | 84 | 1016.9 |
| 20260502023104 | 55 | 11 | 2.0 | 8.0 | 0.00 | 0.18 | 0.18 | 84 | 1016.9 |
| 20260502023005 | 55 | 12 | 2.0 | 7.0 | 0.00 | 0.18 | 0.18 | 84 | 1016.8 |
| 20260502022904 | 55 | 13 | 3.0 | 7.0 | 0.00 | 0.18 | 0.18 | 84 | 1016.8 |
| 20260502022805 | 55 | 13 | 3.0 | 7.0 | 0.00 | 0.18 | 0.18 | 84 | 1016.8 |
| 20260502022705 | 55 | 12 | 3.0 | 7.0 | 0.00 | 0.18 | 0.18 | 84 | 1016.8 |
| 20260502022604 | 55 | 11 | 3.0 | 7.0 | 0.00 | 0.18 | 0.18 | 84 | 1016.8 |
| 20260502022505 | 55 | 11 | 3.0 | 7.0 | 0.00 | 0.18 | 0.18 | 84 | 1016.7 |
| 20260502022404 | 55 | 10 | 3.0 | 7.0 | 0.00 | 0.18 | 0.18 | 84 | 1016.8 |
| 20260502022306 | 55 | 8 | 3.0 | 8.0 | 0.00 | 0.18 | 0.18 | 84 | 1016.7 |
| 20260502022204 | 55 | 8 | 3.0 | 8.0 | 0.00 | 0.18 | 0.18 | 84 | 1016.7 |
| 20260502022105 | 55 | 7 | 3.0 | 8.0 | 0.00 | 0.18 | 0.18 | 84 | 1016.7 |
| 20260502022005 | 55 | 7 | 3.0 | 8.0 | 0.00 | 0.18 | 0.18 | 84 | 1016.7 |
| 20260502021904 | 55 | 5 | 3.0 | 8.0 | 0.00 | 0.18 | 0.18 | 84 | 1016.7 |
| 20260502021805 | 55 | 6 | 3.0 | 8.0 | 0.00 | 0.18 | 0.18 | 84 | 1016.7 |
| 20260502021705 | 55 | 8 | 3.0 | 8.0 | 0.00 | 0.18 | 0.18 | 84 | 1016.7 |
| 20260502021505 | 55 | 8 | 3.0 | 8.0 | 0.00 | 0.18 | 0.18 | 84 | 1016.7 |
| 20260502021404 | 55 | 9 | 3.0 | 8.0 | 0.00 | 0.18 | 0.18 | 84 | 1016.6 |
| 20260502021205 | 55 | 10 | 3.0 | 8.0 | 0.00 | 0.18 | 0.18 | 84 | 1016.6 |
| 20260502021105 | 55 | 11 | 3.0 | 8.0 | 0.00 | 0.18 | 0.18 | 84 | 1016.6 |
| 20260502021005 | 55 | 12 | 3.0 | 8.0 | 0.00 | 0.18 | 0.18 | 84 | 1016.5 |
| 20260502020904 | 55 | 15 | 3.0 | 8.0 | 0.00 | 0.18 | 0.18 | 84 | 1016.4 |
| 20260502020805 | 55 | 15 | 3.0 | 8.0 | 0.00 | 0.18 | 0.18 | 84 | 1016.5 |
| 20260502020705 | 55 | 15 | 3.0 | 7.0 | 0.00 | 0.18 | 0.18 | 84 | 1016.4 |
| 20260502020605 | 55 | 16 | 3.0 | 7.0 | 0.00 | 0.18 | 0.18 | 84 | 1016.4 |
| 20260502020504 | 55 | 18 | 3.0 | 7.0 | 0.00 | 0.18 | 0.18 | 84 | 1016.4 |
| 20260502020405 | 55 | 18 | 3.0 | 7.0 | 0.00 | 0.18 | 0.18 | 84 | 1016.4 |
| 20260502020304 | 55 | 19 | 2.0 | 9.0 | 0.00 | 0.18 | 0.18 | 84 | 1016.4 |
| 20260502020205 | 55 | 20 | 2.0 | 9.0 | 0.00 | 0.18 | 0.18 | 84 | 1016.3 |
| 20260502020104 | 55 | 18 | 2.0 | 9.0 | 0.00 | 0.18 | 0.18 | 84 | 1016.3 |
| 20260502015804 | 55 | 15 | 2.0 | 9.0 | 0.00 | 0.18 | 0.18 | 84 | 1016.3 |
| 20260502015706 | 55 | 14 | 2.0 | 9.0 | 0.00 | 0.18 | 0.18 | 84 | 1016.2 |
| 20260502015604 | 55 | 14 | 2.0 | 9.0 | 0.00 | 0.18 | 0.18 | 84 | 1016.2 |
| 20260502015404 | 55 | 14 | 3.0 | 9.0 | 0.00 | 0.18 | 0.18 | 84 | 1016.2 |
| 20260502015305 | 55 | 15 | 3.0 | 8.0 | 0.00 | 0.18 | 0.18 | 84 | 1016.2 |
| 20260502015205 | 55 | 15 | 3.0 | 8.0 | 0.00 | 0.18 | 0.18 | 84 | 1016.1 |
| 20260502015104 | 55 | 17 | 3.0 | 7.0 | 0.00 | 0.18 | 0.18 | 84 | 1016.1 |
| 20260502015005 | 55 | 18 | 3.0 | 7.0 | 0.00 | 0.18 | 0.18 | 84 | 1016.1 |
| 20260502014904 | 55 | 19 | 3.0 | 7.0 | 0.00 | 0.18 | 0.18 | 84 | 1016.1 |
| 20260502014804 | 55 | 21 | 3.0 | 8.0 | 0.00 | 0.18 | 0.18 | 84 | 1016.1 |
| 20260502014705 | 55 | 22 | 3.0 | 8.0 | 0.00 | 0.18 | 0.18 | 84 | 1016.0 |
| 20260502014605 | 55 | 23 | 3.0 | 8.0 | 0.00 | 0.18 | 0.18 | 84 | 1016.0 |
| 20260502014505 | 55 | 24 | 3.0 | 8.0 | 0.00 | 0.18 | 0.18 | 84 | 1016.0 |
| 20260502014404 | 55 | 22 | 3.0 | 8.0 | 0.00 | 0.18 | 0.18 | 84 | 1016.0 |
| 20260502014205 | 55 | 23 | 3.0 | 8.0 | 0.00 | 0.18 | 0.18 | 83 | 1015.9 |
| 20260502014104 | 55 | 25 | 3.0 | 8.0 | 0.00 | 0.18 | 0.18 | 83 | 1015.9 |
| 20260502014005 | 55 | 26 | 3.0 | 8.0 | 0.00 | 0.18 | 0.18 | 84 | 1015.8 |
| 20260502013904 | 55 | 27 | 3.0 | 8.0 | 0.00 | 0.18 | 0.18 | 84 | 1015.8 |
| 20260502013705 | 55 | 28 | 3.0 | 8.0 | 0.00 | 0.18 | 0.18 | 84 | 1015.8 |
| 20260502013605 | 55 | 29 | 3.0 | 8.0 | 0.00 | 0.18 | 0.18 | 84 | 1015.8 |
| 20260502013505 | 55 | 29 | 3.0 | 8.0 | 0.00 | 0.18 | 0.18 | 84 | 1015.7 |
| 20260502013405 | 55 | 31 | 3.0 | 6.0 | 0.00 | 0.18 | 0.18 | 84 | 1015.7 |
| 20260502013304 | 55 | 32 | 3.0 | 6.0 | 0.00 | 0.18 | 0.18 | 84 | 1015.7 |
| 20260502013205 | 55 | 30 | 3.0 | 6.0 | 0.00 | 0.18 | 0.18 | 84 | 1015.7 |
| 20260502013006 | 55 | 30 | 3.0 | 6.0 | 0.00 | 0.18 | 0.18 | 84 | 1015.6 |
| 20260502012905 | 55 | 29 | 3.0 | 6.0 | 0.00 | 0.18 | 0.18 | 84 | 1015.7 |
| 20260502012804 | 55 | 28 | 3.0 | 6.0 | 0.00 | 0.18 | 0.18 | 84 | 1015.6 |
| 20260502012705 | 55 | 29 | 3.0 | 6.0 | 0.00 | 0.18 | 0.18 | 84 | 1015.6 |
| 20260502012604 | 55 | 27 | 3.0 | 6.0 | 0.00 | 0.18 | 0.18 | 84 | 1015.6 |
| 20260502012505 | 55 | 29 | 3.0 | 6.0 | 0.00 | 0.18 | 0.18 | 85 | 1015.7 |
| 20260502012404 | 55 | 27 | 3.0 | 8.0 | 0.00 | 0.18 | 0.18 | 85 | 1015.7 |
| 20260502012306 | 56 | 27 | 3.0 | 8.0 | 0.00 | 0.18 | 0.18 | 85 | 1015.6 |
| 20260502012205 | 55 | 27 | 3.0 | 8.0 | 0.00 | 0.18 | 0.18 | 85 | 1015.6 |
| 20260502012105 | 56 | 28 | 3.0 | 8.0 | 0.00 | 0.18 | 0.18 | 85 | 1015.6 |
| 20260502011904 | 55 | 26 | 3.0 | 8.0 | 0.00 | 0.19 | 0.18 | 85 | 1015.5 |
| 20260502011704 | 55 | 26 | 3.0 | 8.0 | 0.00 | 0.19 | 0.18 | 85 | 1015.5 |
| 20260502011605 | 55 | 26 | 3.0 | 8.0 | 0.00 | 0.19 | 0.18 | 85 | 1015.5 |
| 20260502011504 | 55 | 25 | 3.0 | 8.0 | 0.00 | 0.19 | 0.18 | 85 | 1015.4 |
| 20260502011405 | 55 | 25 | 3.0 | 8.0 | 0.00 | 0.19 | 0.18 | 85 | 1015.3 |
| 20260502011305 | 55 | 24 | 3.0 | 8.0 | 0.00 | 0.19 | 0.18 | 85 | 1015.3 |
| 20260502011204 | 55 | 24 | 3.0 | 8.0 | 0.00 | 0.19 | 0.18 | 85 | 1015.3 |
| 20260502011005 | 55 | 23 | 3.0 | 8.0 | 0.00 | 0.19 | 0.18 | 86 | 1015.3 |
| 20260502010904 | 55 | 23 | 3.0 | 6.0 | 0.00 | 0.19 | 0.18 | 85 | 1015.3 |
| 20260502010805 | 55 | 22 | 3.0 | 6.0 | 0.00 | 0.19 | 0.18 | 85 | 1015.3 |
| 20260502010704 | 55 | 23 | 3.0 | 6.0 | 0.00 | 0.20 | 0.18 | 86 | 1015.3 |
| 20260502010504 | 55 | 24 | 3.0 | 5.0 | 0.00 | 0.20 | 0.18 | 86 | 1015.3 |
| 20260502010404 | 55 | 25 | 2.0 | 5.0 | 0.00 | 0.20 | 0.18 | 86 | 1015.3 |
| 20260502010306 | 56 | 25 | 2.0 | 6.0 | 0.00 | 0.20 | 0.18 | 86 | 1015.2 |
| 20260502010204 | 56 | 27 | 2.0 | 6.0 | 0.00 | 0.20 | 0.18 | 86 | 1015.2 |
| 20260502010105 | 56 | 30 | 2.0 | 6.0 | 0.00 | 0.20 | 0.18 | 86 | 1015.2 |
| 20260502010004 | 56 | 32 | 2.0 | 6.0 | 0.00 | 0.20 | 0.18 | 86 | 1015.1 |
| 20260502005804 | 56 | 35 | 3.0 | 6.0 | 0.00 | 0.20 | 0.18 | 86 | 1015.2 |
| 20260502005505 | 56 | 38 | 3.0 | 9.0 | 0.00 | 0.20 | 0.18 | 86 | 1015.1 |
| 20260502005405 | 56 | 37 | 4.0 | 10.0 | 0.00 | 0.20 | 0.18 | 86 | 1015.1 |
| 20260502005306 | 56 | 40 | 4.0 | 10.0 | 0.00 | 0.20 | 0.18 | 86 | 1015.0 |
| 20260502005204 | 56 | 40 | 4.0 | 10.0 | 0.00 | 0.20 | 0.18 | 85 | 1015.0 |
| 20260502005004 | 56 | 39 | 5.0 | 10.0 | 0.00 | 0.20 | 0.18 | 85 | 1015.0 |
| 20260502004905 | 56 | 40 | 5.0 | 10.0 | 0.00 | 0.20 | 0.18 | 85 | 1014.9 |
| 20260502004804 | 56 | 40 | 5.0 | 10.0 | 0.00 | 0.20 | 0.18 | 85 | 1014.9 |
| 20260502004604 | 56 | 43 | 5.0 | 10.0 | 0.00 | 0.20 | 0.18 | 85 | 1014.9 |
| 20260502004505 | 56 | 44 | 5.0 | 10.0 | 0.00 | 0.20 | 0.18 | 85 | 1014.8 |
| 20260502004404 | 56 | 47 | 5.0 | 9.0 | 0.00 | 0.20 | 0.18 | 85 | 1014.8 |
| 20260502004305 | 56 | 47 | 5.0 | 9.0 | 0.00 | 0.20 | 0.18 | 85 | 1014.9 |
| 20260502004205 | 56 | 49 | 5.0 | 9.0 | 0.00 | 0.20 | 0.18 | 86 | 1014.9 |
| 20260502004104 | 56 | 51 | 5.0 | 9.0 | 0.00 | 0.20 | 0.18 | 86 | 1014.9 |
| 20260502004005 | 56 | 52 | 5.0 | 9.0 | 0.00 | 0.20 | 0.18 | 85 | 1014.9 |
| 20260502003904 | 56 | 52 | 5.0 | 9.0 | 0.00 | 0.21 | 0.18 | 85 | 1014.8 |
| 20260502003704 | 56 | 54 | 5.0 | 9.0 | 0.00 | 0.21 | 0.18 | 85 | 1014.8 |
| 20260502003605 | 56 | 55 | 5.0 | 9.0 | 0.00 | 0.21 | 0.18 | 86 | 1014.8 |
| 20260502003405 | 56 | 56 | 5.0 | 8.0 | 0.00 | 0.21 | 0.18 | 86 | 1014.8 |
| 20260502003304 | 56 | 56 | 5.0 | 8.0 | 0.00 | 0.21 | 0.18 | 86 | 1014.7 |
| 20260502003204 | 56 | 56 | 5.0 | 8.0 | 0.00 | 0.21 | 0.18 | 86 | 1014.8 |
| 20260502003004 | 56 | 57 | 4.0 | 8.0 | 0.00 | 0.21 | 0.18 | 86 | 1014.7 |
| 20260502002905 | 56 | 57 | 4.0 | 8.0 | 0.00 | 0.21 | 0.18 | 86 | 1014.7 |
| 20260502002804 | 56 | 56 | 4.0 | 8.0 | 0.00 | 0.21 | 0.18 | 86 | 1014.7 |
| 20260502002705 | 56 | 56 | 4.0 | 8.0 | 0.00 | 0.21 | 0.18 | 86 | 1014.7 |
| 20260502002604 | 56 | 54 | 4.0 | 8.0 | 0.00 | 0.21 | 0.18 | 86 | 1014.7 |
| 20260502002505 | 56 | 54 | 4.0 | 8.0 | 0.00 | 0.21 | 0.18 | 86 | 1014.7 |
| 20260502002404 | 56 | 54 | 4.0 | 8.0 | 0.00 | 0.21 | 0.18 | 86 | 1014.6 |
| 20260502002306 | 56 | 55 | 4.0 | 8.0 | 0.00 | 0.21 | 0.18 | 86 | 1014.7 |
| 20260502002204 | 56 | 53 | 4.0 | 8.0 | 0.00 | 0.21 | 0.18 | 86 | 1014.6 |
| 20260502001904 | 56 | 53 | 4.0 | 9.0 | 0.00 | 0.21 | 0.18 | 86 | 1014.6 |
| 20260502001805 | 56 | 54 | 4.0 | 9.0 | 0.00 | 0.21 | 0.18 | 87 | 1014.7 |
| 20260502001704 | 56 | 53 | 4.0 | 9.0 | 0.00 | 0.21 | 0.18 | 87 | 1014.7 |
| 20260502001605 | 56 | 54 | 4.0 | 9.0 | 0.00 | 0.21 | 0.18 | 86 | 1014.7 |
| 20260502001505 | 56 | 54 | 4.0 | 9.0 | 0.00 | 0.21 | 0.18 | 87 | 1014.7 |
| 20260502001404 | 56 | 52 | 4.0 | 9.0 | 0.00 | 0.21 | 0.18 | 86 | 1014.7 |
| 20260502001205 | 56 | 50 | 4.0 | 9.0 | 0.00 | 0.21 | 0.18 | 87 | 1014.7 |
| 20260502001105 | 56 | 50 | 4.0 | 9.0 | 0.00 | 0.21 | 0.18 | 87 | 1014.7 |
| 20260502001004 | 56 | 49 | 4.0 | 9.0 | 0.00 | 0.21 | 0.18 | 87 | 1014.7 |
| 20260502000905 | 56 | 46 | 4.0 | 9.0 | 0.00 | 0.21 | 0.18 | 87 | 1014.6 |
| 20260502000804 | 56 | 44 | 4.0 | 9.0 | 0.00 | 0.21 | 0.18 | 87 | 1014.6 |
| 20260502000705 | 56 | 42 | 3.0 | 9.0 | 0.00 | 0.21 | 0.18 | 87 | 1014.6 |
| 20260502000604 | 56 | 40 | 4.0 | 9.0 | 0.00 | 0.21 | 0.18 | 87 | 1014.6 |
| 20260502000404 | 56 | 36 | 4.0 | 9.0 | 0.00 | 0.21 | 0.18 | 87 | 1014.5 |
| 20260502000305 | 56 | 36 | 4.0 | 9.0 | 0.00 | 0.21 | 0.18 | 87 | 1014.5 |
| 20260502000204 | 56 | 36 | 4.0 | 11.0 | 0.00 | 0.21 | 0.18 | 88 | 1014.5 |
| 20260502000105 | 56 | 35 | 4.0 | 11.0 | 0.00 | 0.21 | 0.18 | 88 | 1014.4 |
| 20260502000004 | 56 | 33 | 4.0 | 11.0 | 0.00 | 0.21 | 0.18 | 88 | 1014.5 |
| 20260501235905 | 56 | 34 | 4.0 | 11.0 | 0.00 | 0.21 | 0.18 | 88 | 1014.5 |
| 20260501235604 | 56 | 39 | 4.0 | 11.0 | 0.00 | 0.21 | 0.18 | 88 | 1014.5 |
| 20260501235504 | 56 | 40 | 4.0 | 11.0 | 0.00 | 0.21 | 0.18 | 88 | 1014.4 |
| 20260501235306 | 56 | 43 | 4.0 | 11.0 | 0.00 | 0.21 | 0.18 | 88 | 1014.4 |
| 20260501235204 | 55 | 43 | 4.0 | 9.0 | 0.00 | 0.21 | 0.18 | 88 | 1014.5 |
| 20260501235105 | 55 | 41 | 4.0 | 9.0 | 0.00 | 0.21 | 0.18 | 88 | 1014.5 |
| 20260501235004 | 55 | 42 | 4.0 | 9.0 | 0.00 | 0.21 | 0.18 | 89 | 1014.5 |
| 20260501234904 | 55 | 42 | 4.0 | 9.0 | 0.00 | 0.21 | 0.18 | 89 | 1014.5 |
| 20260501234804 | 55 | 42 | 4.0 | 9.0 | 0.00 | 0.22 | 0.18 | 89 | 1014.5 |
| 20260501234705 | 55 | 40 | 3.0 | 9.0 | 0.00 | 0.22 | 0.18 | 89 | 1014.5 |
| 20260501234604 | 55 | 41 | 3.0 | 8.0 | 0.00 | 0.22 | 0.18 | 89 | 1014.4 |
| 20260501234505 | 55 | 43 | 3.0 | 8.0 | 0.00 | 0.22 | 0.18 | 89 | 1014.4 |